Time,TemperatureF,DewpointF,PressureIn,WindDirection,WindDirectionDegrees,WindSpeedMPH,WindSpeedGustMPH,Humidity,HourlyPrecipIn,Conditions,Clouds,dailyrainin,SoftwareType,DateUTC
2013-08-28 00:00:00,64.2,58.6,29.68,ESE,112,0.0,0.0,82,0.00,,,0.00,VWS V14.01,2013-08-28 07:00:00,
2013-08-28 00:01:00,64.2,58.6,29.68,ESE,112,0.0,0.0,82,0.00,,,0.00,VWS V14.01,2013-08-28 07:01:00,
2013-08-28 00:03:00,64.2,58.6,29.68,ESE,112,0.0,0.0,82,0.00,,,0.00,VWS V14.01,2013-08-28 07:03:00,
2013-08-28 00:05:00,64.2,58.6,29.68,SSW,202,0.0,0.0,82,0.00,,,0.00,VWS V14.01,2013-08-28 07:05:00,
2013-08-28 00:06:00,64.2,58.6,29.68,SSW,202,0.0,0.0,82,0.00,,,0.00,VWS V14.01,2013-08-28 07:06:00,
2013-08-28 00:08:00,64.2,58.6,29.68,SSW,202,0.0,0.0,82,0.00,,,0.00,VWS V14.01,2013-08-28 07:08:00,
2013-08-28 00:10:00,64.2,58.6,29.68,SSW,202,0.0,0.0,82,0.00,,,0.00,VWS V14.01,2013-08-28 07:10:00,
2013-08-28 00:11:00,64.2,58.6,29.68,SSW,202,0.0,0.0,82,0.00,,,0.00,VWS V14.01,2013-08-28 07:11:00,
2013-08-28 00:13:00,64.2,58.6,29.68,SSW,202,0.0,0.0,82,0.00,,,0.00,VWS V14.01,2013-08-28 07:13:00,
2013-08-28 00:15:00,64.2,58.6,29.68,SSW,202,0.0,0.0,82,0.00,,,0.00,VWS V14.01,2013-08-28 07:15:00,
2013-08-28 00:16:00,64.2,58.6,29.68,SE,135,0.0,0.0,82,0.00,,,0.00,VWS V14.01,2013-08-28 07:16:00,
2013-08-28 00:18:00,64.0,58.4,29.68,SE,135,0.0,0.0,82,0.00,,,0.00,VWS V14.01,2013-08-28 07:18:00,
2013-08-28 00:20:00,64.0,58.4,29.68,SE,135,0.0,0.0,82,0.00,,,0.00,VWS V14.01,2013-08-28 07:20:00,
2013-08-28 00:21:00,64.0,58.4,29.68,SE,135,0.0,0.0,82,0.00,,,0.00,VWS V14.01,2013-08-28 07:21:00,
2013-08-28 00:23:00,64.0,58.4,29.68,ESE,112,0.0,0.0,82,0.00,,,0.00,VWS V14.01,2013-08-28 07:23:00,
2013-08-28 00:24:00,64.0,58.4,29.68,ESE,112,0.0,0.0,82,0.00,,,0.00,VWS V14.01,2013-08-28 07:24:00,
2013-08-28 00:26:00,64.0,58.4,29.68,ESE,112,0.0,0.0,82,0.00,,,0.00,VWS V14.01,2013-08-28 07:26:00,
2013-08-28 00:28:00,64.0,58.4,29.68,SE,135,0.0,0.0,82,0.00,,,0.00,VWS V14.01,2013-08-28 07:28:00,
2013-08-28 00:29:00,64.0,58.8,29.68,SE,135,0.0,0.0,83,0.00,,,0.00,VWS V14.01,2013-08-28 07:29:00,
2013-08-28 00:31:00,63.9,58.6,29.68,ESE,112,0.0,0.0,83,0.00,,,0.00,VWS V14.01,2013-08-28 07:31:00,
2013-08-28 00:33:00,63.9,58.3,29.68,ESE,112,0.0,0.0,82,0.00,,,0.00,VWS V14.01,2013-08-28 07:33:00,
2013-08-28 00:34:00,63.9,58.3,29.68,ESE,112,0.0,0.0,82,0.00,,,0.00,VWS V14.01,2013-08-28 07:34:00,
2013-08-28 00:36:00,63.9,58.3,29.68,ESE,112,0.0,0.0,82,0.00,,,0.00,VWS V14.01,2013-08-28 07:36:00,
2013-08-28 00:38:00,63.9,58.6,29.68,ESE,112,0.0,0.0,83,0.00,,,0.00,VWS V14.01,2013-08-28 07:38:00,
2013-08-28 00:39:00,63.9,58.6,29.68,ESE,112,0.0,0.0,83,0.00,,,0.00,VWS V14.01,2013-08-28 07:39:00,
2013-08-28 00:41:00,63.9,58.6,29.68,ESE,112,0.0,0.0,83,0.00,,,0.00,VWS V14.01,2013-08-28 07:41:00,
2013-08-28 00:43:00,63.9,58.6,29.68,ESE,112,0.0,0.0,83,0.00,,,0.00,VWS V14.01,2013-08-28 07:43:00,
2013-08-28 00:44:00,63.9,58.6,29.68,ESE,112,0.0,0.0,83,0.00,,,0.00,VWS V14.01,2013-08-28 07:44:00,
2013-08-28 00:46:00,63.9,58.6,29.68,SSE,158,0.0,0.0,83,0.00,,,0.00,VWS V14.01,2013-08-28 07:46:00,
2013-08-28 00:48:00,63.9,58.6,29.68,SE,135,0.0,0.0,83,0.00,,,0.00,VWS V14.01,2013-08-28 07:48:00,
2013-08-28 00:49:00,63.9,58.6,29.68,SE,135,0.0,0.0,83,0.00,,,0.00,VWS V14.01,2013-08-28 07:49:00,
2013-08-28 00:51:00,63.7,58.8,29.68,SE,135,0.0,0.0,84,0.00,,,0.00,VWS V14.01,2013-08-28 07:51:00,
2013-08-28 00:53:00,63.7,58.4,29.68,SE,135,0.0,0.0,83,0.00,,,0.00,VWS V14.01,2013-08-28 07:53:00,
2013-08-28 00:54:00,63.7,58.4,29.68,SE,135,0.0,0.0,83,0.00,,,0.00,VWS V14.01,2013-08-28 07:54:00,
2013-08-28 00:56:00,63.7,58.4,29.68,SE,135,0.0,0.0,83,0.00,,,0.00,VWS V14.01,2013-08-28 07:56:00,
2013-08-28 00:58:00,63.7,58.4,29.68,SE,135,0.0,0.0,83,0.00,,,0.00,VWS V14.01,2013-08-28 07:58:00,
2013-08-28 00:59:00,63.7,58.4,29.68,SE,135,0.0,0.0,83,0.00,,,0.00,VWS V14.01,2013-08-28 07:59:00,
2013-08-28 01:00:00,63.7,58.4,29.68,SE,135,0.0,0.0,83,0.00,,,0.00,VWS V14.01,2013-08-28 08:00:00,
2013-08-28 01:01:00,63.7,58.4,29.68,SE,135,0.0,0.0,83,0.00,,,0.00,VWS V14.01,2013-08-28 08:01:00,
2013-08-28 01:03:00,63.7,58.4,29.68,ESE,112,0.0,0.0,83,0.00,,,0.00,VWS V14.01,2013-08-28 08:03:00,
2013-08-28 01:04:00,63.7,58.4,29.68,ESE,112,0.0,0.0,83,0.00,,,0.00,VWS V14.01,2013-08-28 08:04:00,
2013-08-28 01:05:00,63.7,58.4,29.68,ESE,112,0.0,0.0,83,0.00,,,0.00,VWS V14.01,2013-08-28 08:05:00,
2013-08-28 01:06:00,63.5,58.2,29.68,ESE,112,0.0,0.0,83,0.00,,,0.00,VWS V14.01,2013-08-28 08:06:00,
2013-08-28 01:07:00,63.5,58.2,29.68,ESE,112,0.0,0.0,83,0.00,,,0.00,VWS V14.01,2013-08-28 08:07:00,
2013-08-28 01:08:00,63.5,58.2,29.68,ESE,112,0.0,0.0,83,0.00,,,0.00,VWS V14.01,2013-08-28 08:08:00,
2013-08-28 01:09:00,63.5,58.2,29.68,ESE,112,0.0,0.0,83,0.00,,,0.00,VWS V14.01,2013-08-28 08:09:00,
2013-08-28 01:11:00,63.5,58.6,29.68,ESE,112,0.0,0.0,84,0.00,,,0.00,VWS V14.01,2013-08-28 08:11:00,
2013-08-28 01:12:00,63.5,58.6,29.68,ESE,112,0.0,0.0,84,0.00,,,0.00,VWS V14.01,2013-08-28 08:12:00,
2013-08-28 01:13:00,63.5,58.6,29.68,ESE,112,0.0,0.0,84,0.00,,,0.00,VWS V14.01,2013-08-28 08:13:00,
2013-08-28 01:14:00,63.5,58.6,29.68,ESE,112,0.0,0.0,84,0.00,,,0.00,VWS V14.01,2013-08-28 08:14:00,
2013-08-28 01:16:00,63.5,58.6,29.68,ESE,112,0.0,0.0,84,0.00,,,0.00,VWS V14.01,2013-08-28 08:16:00,
2013-08-28 01:17:00,63.5,58.6,29.68,ESE,112,0.0,0.0,84,0.00,,,0.00,VWS V14.01,2013-08-28 08:17:00,
2013-08-28 01:18:00,63.5,58.9,29.68,SE,135,0.0,0.0,85,0.00,,,0.00,VWS V14.01,2013-08-28 08:18:00,
2013-08-28 01:19:00,63.5,58.9,29.68,SE,135,0.0,0.0,85,0.00,,,0.00,VWS V14.01,2013-08-28 08:19:00,
2013-08-28 01:21:00,63.5,58.9,29.68,SE,135,0.0,0.0,85,0.00,,,0.00,VWS V14.01,2013-08-28 08:21:00,
2013-08-28 01:23:00,63.5,58.6,29.68,SE,135,0.0,0.0,84,0.00,,,0.00,VWS V14.01,2013-08-28 08:23:00,
2013-08-28 01:24:00,63.5,58.9,29.68,SE,135,0.0,0.0,85,0.00,,,0.00,VWS V14.01,2013-08-28 08:24:00,
2013-08-28 01:26:00,63.5,58.9,29.68,SE,135,0.0,0.0,85,0.00,,,0.00,VWS V14.01,2013-08-28 08:26:00,
2013-08-28 01:28:00,63.5,58.9,29.68,SE,135,0.0,0.0,85,0.00,,,0.00,VWS V14.01,2013-08-28 08:28:00,
2013-08-28 01:29:00,63.5,58.9,29.68,SE,135,0.0,0.0,85,0.00,,,0.00,VWS V14.01,2013-08-28 08:29:00,
2013-08-28 01:31:00,63.3,58.7,29.68,SE,135,0.0,0.0,85,0.00,,,0.00,VWS V14.01,2013-08-28 08:31:00,
2013-08-28 01:33:00,63.3,58.7,29.68,SE,135,0.0,0.0,85,0.00,,,0.00,VWS V14.01,2013-08-28 08:33:00,
2013-08-28 01:34:00,63.3,58.7,29.68,SE,135,0.0,0.0,85,0.00,,,0.00,VWS V14.01,2013-08-28 08:34:00,
2013-08-28 01:36:00,63.3,58.7,29.68,ESE,112,0.0,0.0,85,0.00,,,0.00,VWS V14.01,2013-08-28 08:36:00,
2013-08-28 01:37:00,63.3,58.7,29.68,ESE,112,0.0,0.0,85,0.00,,,0.00,VWS V14.01,2013-08-28 08:37:00,
2013-08-28 01:38:00,63.3,58.7,29.68,ESE,112,0.0,0.0,85,0.00,,,0.00,VWS V14.01,2013-08-28 08:38:00,
2013-08-28 01:39:00,63.3,58.7,29.68,ESE,112,0.0,0.0,85,0.00,,,0.00,VWS V14.01,2013-08-28 08:39:00,
2013-08-28 01:41:00,63.3,58.7,29.68,ESE,112,0.0,0.0,85,0.00,,,0.00,VWS V14.01,2013-08-28 08:41:00,
2013-08-28 01:42:00,63.3,58.7,29.68,ESE,112,0.0,0.0,85,0.00,,,0.00,VWS V14.01,2013-08-28 08:42:00,
2013-08-28 01:43:00,63.1,58.6,29.68,East,90,0.0,0.0,85,0.00,,,0.00,VWS V14.01,2013-08-28 08:43:00,
2013-08-28 01:44:00,63.1,58.2,29.68,East,90,0.0,0.0,84,0.00,,,0.00,VWS V14.01,2013-08-28 08:44:00,
2013-08-28 01:45:00,63.1,58.2,29.68,East,90,0.0,0.0,84,0.00,,,0.00,VWS V14.01,2013-08-28 08:45:00,
2013-08-28 01:46:00,63.1,58.6,29.68,East,90,0.0,0.0,85,0.00,,,0.00,VWS V14.01,2013-08-28 08:46:00,
2013-08-28 01:47:00,63.1,58.6,29.71,East,90,0.0,0.0,85,0.00,,,0.00,VWS V14.01,2013-08-28 08:47:00,
2013-08-28 01:48:00,63.1,58.6,29.71,East,90,0.0,0.0,85,0.00,,,0.00,VWS V14.01,2013-08-28 08:48:00,
2013-08-28 01:49:00,63.1,58.6,29.71,East,90,0.0,0.0,85,0.00,,,0.00,VWS V14.01,2013-08-28 08:49:00,
2013-08-28 01:50:00,63.1,58.6,29.71,East,90,0.0,0.0,85,0.00,,,0.00,VWS V14.01,2013-08-28 08:50:00,
2013-08-28 01:51:00,63.1,58.6,29.71,East,90,0.0,0.0,85,0.00,,,0.00,VWS V14.01,2013-08-28 08:51:00,
2013-08-28 01:52:00,63.1,58.6,29.71,East,90,0.0,0.0,85,0.00,,,0.00,VWS V14.01,2013-08-28 08:52:00,
2013-08-28 01:53:00,63.1,58.6,29.71,East,90,0.0,0.0,85,0.00,,,0.00,VWS V14.01,2013-08-28 08:53:00,
2013-08-28 01:54:00,63.1,58.6,29.71,East,90,0.0,0.0,85,0.00,,,0.00,VWS V14.01,2013-08-28 08:54:00,
2013-08-28 01:55:00,63.1,58.9,29.71,East,90,0.0,0.0,86,0.00,,,0.00,VWS V14.01,2013-08-28 08:55:00,
2013-08-28 01:56:00,63.1,58.9,29.71,East,90,0.0,0.0,86,0.00,,,0.00,VWS V14.01,2013-08-28 08:56:00,
2013-08-28 01:57:00,63.1,58.9,29.71,East,90,0.0,0.0,86,0.00,,,0.00,VWS V14.01,2013-08-28 08:57:00,
2013-08-28 01:58:00,63.1,58.9,29.71,East,90,0.0,0.0,86,0.00,,,0.00,VWS V14.01,2013-08-28 08:58:00,
2013-08-28 01:59:00,63.1,58.9,29.71,East,90,0.0,0.0,86,0.00,,,0.00,VWS V14.01,2013-08-28 08:59:00,
2013-08-28 02:00:00,63.1,58.9,29.71,East,90,0.0,0.0,86,0.00,,,0.00,VWS V14.01,2013-08-28 09:00:00,
2013-08-28 02:01:00,63.1,58.9,29.71,East,90,0.0,0.0,86,0.00,,,0.00,VWS V14.01,2013-08-28 09:01:00,
2013-08-28 02:02:00,63.1,58.9,29.71,East,90,0.0,0.0,86,0.00,,,0.00,VWS V14.01,2013-08-28 09:02:00,
2013-08-28 02:03:00,63.1,58.9,29.71,East,90,0.0,0.0,86,0.00,,,0.00,VWS V14.01,2013-08-28 09:03:00,
2013-08-28 02:04:00,63.1,58.9,29.71,East,90,0.0,0.0,86,0.00,,,0.00,VWS V14.01,2013-08-28 09:04:00,
2013-08-28 02:05:00,63.1,58.9,29.71,East,90,0.0,0.0,86,0.00,,,0.00,VWS V14.01,2013-08-28 09:05:00,
2013-08-28 02:06:00,63.1,58.9,29.71,East,90,0.0,0.0,86,0.00,,,0.00,VWS V14.01,2013-08-28 09:06:00,
2013-08-28 02:07:00,63.1,58.9,29.71,East,90,0.0,0.0,86,0.00,,,0.00,VWS V14.01,2013-08-28 09:07:00,
2013-08-28 02:08:00,63.1,58.9,29.71,East,90,0.0,0.0,86,0.00,,,0.00,VWS V14.01,2013-08-28 09:08:00,
2013-08-28 02:09:00,63.1,58.9,29.71,East,90,0.0,0.0,86,0.00,,,0.00,VWS V14.01,2013-08-28 09:09:00,
2013-08-28 02:10:00,63.1,58.9,29.71,East,90,0.0,0.0,86,0.00,,,0.00,VWS V14.01,2013-08-28 09:10:00,
2013-08-28 02:11:00,63.1,58.9,29.71,East,90,0.0,0.0,86,0.00,,,0.00,VWS V14.01,2013-08-28 09:11:00,
2013-08-28 02:12:00,63.1,58.9,29.71,East,90,0.0,0.0,86,0.04,,,0.04,VWS V14.01,2013-08-28 09:12:00,
2013-08-28 02:13:00,63.1,58.9,29.71,East,90,0.0,0.0,86,0.04,,,0.04,VWS V14.01,2013-08-28 09:13:00,
2013-08-28 02:14:00,63.1,58.9,29.71,East,90,0.0,0.0,86,0.04,,,0.04,VWS V14.01,2013-08-28 09:14:00,
2013-08-28 02:16:00,63.1,58.9,29.71,East,90,0.0,0.0,86,0.04,,,0.04,VWS V14.01,2013-08-28 09:16:00,
2013-08-28 02:17:00,63.1,58.9,29.71,East,90,0.0,0.0,86,0.04,,,0.04,VWS V14.01,2013-08-28 09:17:00,
2013-08-28 02:18:00,63.1,58.9,29.71,East,90,0.0,0.0,86,0.04,,,0.04,VWS V14.01,2013-08-28 09:18:00,
2013-08-28 02:19:00,63.1,58.9,29.71,East,90,0.0,0.0,86,0.04,,,0.04,VWS V14.01,2013-08-28 09:19:00,
2013-08-28 02:21:00,63.1,58.9,29.71,East,90,0.0,0.0,86,0.04,,,0.04,VWS V14.01,2013-08-28 09:21:00,
2013-08-28 02:22:00,63.1,59.2,29.71,East,90,0.0,0.0,87,0.04,,,0.04,VWS V14.01,2013-08-28 09:22:00,
2013-08-28 02:23:00,63.1,59.2,29.71,East,90,0.0,0.0,87,0.04,,,0.04,VWS V14.01,2013-08-28 09:23:00,
2013-08-28 02:24:00,63.1,59.2,29.71,East,90,0.0,0.0,87,0.04,,,0.04,VWS V14.01,2013-08-28 09:24:00,
2013-08-28 02:26:00,63.1,59.2,29.71,East,90,0.0,0.0,87,0.04,,,0.04,VWS V14.01,2013-08-28 09:26:00,
2013-08-28 02:27:00,63.1,59.2,29.71,East,90,0.0,0.0,87,0.04,,,0.04,VWS V14.01,2013-08-28 09:27:00,
2013-08-28 02:28:00,63.1,59.2,29.71,East,90,0.0,0.0,87,0.04,,,0.04,VWS V14.01,2013-08-28 09:28:00,
2013-08-28 02:29:00,63.0,59.0,29.71,East,90,0.0,0.0,87,0.04,,,0.04,VWS V14.01,2013-08-28 09:29:00,
2013-08-28 02:31:00,63.0,59.0,29.71,East,90,0.0,0.0,87,0.04,,,0.04,VWS V14.01,2013-08-28 09:31:00,
2013-08-28 02:32:00,63.0,59.0,29.71,East,90,0.0,0.0,87,0.04,,,0.04,VWS V14.01,2013-08-28 09:32:00,
2013-08-28 02:33:00,63.0,59.0,29.71,East,90,0.0,0.0,87,0.04,,,0.04,VWS V14.01,2013-08-28 09:33:00,
2013-08-28 02:34:00,63.0,59.0,29.71,East,90,0.0,0.0,87,0.04,,,0.04,VWS V14.01,2013-08-28 09:34:00,
2013-08-28 02:36:00,63.0,59.0,29.71,East,90,0.0,0.0,87,0.04,,,0.04,VWS V14.01,2013-08-28 09:36:00,
2013-08-28 02:37:00,63.0,59.0,29.71,East,90,0.0,0.0,87,0.04,,,0.04,VWS V14.01,2013-08-28 09:37:00,
2013-08-28 02:38:00,63.0,59.0,29.71,ESE,112,0.0,0.0,87,0.04,,,0.04,VWS V14.01,2013-08-28 09:38:00,
2013-08-28 02:39:00,63.0,59.0,29.71,ESE,112,0.0,0.0,87,0.04,,,0.04,VWS V14.01,2013-08-28 09:39:00,
2013-08-28 02:41:00,63.0,59.0,29.71,ESE,112,0.0,0.0,87,0.04,,,0.04,VWS V14.01,2013-08-28 09:41:00,
2013-08-28 02:42:00,63.0,59.0,29.71,ESE,112,0.0,0.0,87,0.04,,,0.04,VWS V14.01,2013-08-28 09:42:00,
2013-08-28 02:43:00,63.0,59.0,29.71,ESE,112,0.0,0.0,87,0.04,,,0.04,VWS V14.01,2013-08-28 09:43:00,
2013-08-28 02:44:00,63.0,59.0,29.71,ESE,112,0.0,0.0,87,0.04,,,0.04,VWS V14.01,2013-08-28 09:44:00,
2013-08-28 02:46:00,62.8,59.2,29.71,East,90,1.1,1.1,88,0.04,,,0.04,VWS V14.01,2013-08-28 09:46:00,
2013-08-28 02:47:00,62.8,59.2,29.71,East,90,0.0,1.1,88,0.04,,,0.04,VWS V14.01,2013-08-28 09:47:00,
2013-08-28 02:48:00,62.8,59.2,29.71,East,90,0.0,1.1,88,0.04,,,0.04,VWS V14.01,2013-08-28 09:48:00,
2013-08-28 02:49:00,62.8,59.2,29.71,East,90,0.0,1.1,88,0.04,,,0.04,VWS V14.01,2013-08-28 09:49:00,
2013-08-28 02:51:00,62.8,59.2,29.71,East,90,0.0,1.1,88,0.04,,,0.04,VWS V14.01,2013-08-28 09:51:00,
2013-08-28 02:52:00,62.8,59.2,29.71,East,90,0.0,1.1,88,0.04,,,0.04,VWS V14.01,2013-08-28 09:52:00,
2013-08-28 02:53:00,62.8,59.2,29.71,East,90,0.0,1.1,88,0.04,,,0.04,VWS V14.01,2013-08-28 09:53:00,
2013-08-28 02:54:00,62.8,59.2,29.71,East,90,0.0,1.1,88,0.04,,,0.04,VWS V14.01,2013-08-28 09:54:00,
2013-08-28 02:56:00,62.6,59.0,29.71,ENE,68,0.0,1.1,88,0.08,,,0.08,VWS V14.01,2013-08-28 09:56:00,
2013-08-28 02:57:00,62.6,59.0,29.71,ENE,68,0.0,1.1,88,0.08,,,0.08,VWS V14.01,2013-08-28 09:57:00,
2013-08-28 02:59:00,62.6,59.0,29.71,ENE,68,0.0,1.1,88,0.08,,,0.08,VWS V14.01,2013-08-28 09:59:00,
2013-08-28 03:01:00,62.8,59.2,29.71,NW,315,0.0,1.1,88,0.08,,,0.08,VWS V14.01,2013-08-28 10:01:00,
2013-08-28 03:02:00,62.8,59.2,29.71,NW,315,0.0,1.1,88,0.08,,,0.08,VWS V14.01,2013-08-28 10:02:00,
2013-08-28 03:04:00,62.8,59.2,29.71,ENE,68,0.0,1.1,88,0.08,,,0.08,VWS V14.01,2013-08-28 10:04:00,
2013-08-28 03:06:00,62.6,59.0,29.71,ENE,68,0.0,0.0,88,0.08,,,0.08,VWS V14.01,2013-08-28 10:06:00,
2013-08-28 03:08:00,62.6,59.0,29.71,ENE,68,0.0,0.0,88,0.08,,,0.08,VWS V14.01,2013-08-28 10:08:00,
2013-08-28 03:09:00,62.6,59.0,29.68,East,90,0.0,0.0,88,0.08,,,0.08,VWS V14.01,2013-08-28 10:09:00,
2013-08-28 03:11:00,62.6,59.3,29.68,East,90,0.0,0.0,89,0.08,,,0.08,VWS V14.01,2013-08-28 10:11:00,
2013-08-28 03:13:00,62.6,59.3,29.68,East,90,0.0,0.0,89,0.04,,,0.08,VWS V14.01,2013-08-28 10:13:00,
2013-08-28 03:14:00,62.6,59.3,29.68,East,90,0.0,0.0,89,0.04,,,0.08,VWS V14.01,2013-08-28 10:14:00,
2013-08-28 03:16:00,62.8,59.5,29.68,East,90,0.0,0.0,89,0.04,,,0.08,VWS V14.01,2013-08-28 10:16:00,
2013-08-28 03:18:00,62.8,59.5,29.68,East,90,0.0,0.0,89,0.04,,,0.08,VWS V14.01,2013-08-28 10:18:00,
2013-08-28 03:19:00,62.8,59.5,29.68,East,90,0.0,0.0,89,0.04,,,0.08,VWS V14.01,2013-08-28 10:19:00,
2013-08-28 03:20:00,62.6,59.3,29.68,East,90,0.0,0.0,89,0.04,,,0.08,VWS V14.01,2013-08-28 10:20:00,
2013-08-28 03:21:00,62.6,59.3,29.68,East,90,0.0,0.0,89,0.04,,,0.08,VWS V14.01,2013-08-28 10:21:00,
2013-08-28 03:23:00,62.6,59.3,29.68,East,90,0.0,0.0,89,0.04,,,0.08,VWS V14.01,2013-08-28 10:23:00,
2013-08-28 03:24:00,62.6,59.3,29.68,East,90,0.0,0.0,89,0.04,,,0.08,VWS V14.01,2013-08-28 10:24:00,
2013-08-28 03:25:00,62.6,59.3,29.68,East,90,0.0,0.0,89,0.04,,,0.08,VWS V14.01,2013-08-28 10:25:00,
2013-08-28 03:26:00,62.6,59.3,29.68,East,90,0.0,0.0,89,0.04,,,0.08,VWS V14.01,2013-08-28 10:26:00,
2013-08-28 03:28:00,62.6,59.3,29.68,East,90,0.0,0.0,89,0.04,,,0.08,VWS V14.01,2013-08-28 10:28:00,
2013-08-28 03:29:00,62.6,59.3,29.68,East,90,0.0,0.0,89,0.04,,,0.08,VWS V14.01,2013-08-28 10:29:00,
2013-08-28 03:30:00,62.6,59.3,29.68,East,90,0.0,0.0,89,0.04,,,0.08,VWS V14.01,2013-08-28 10:30:00,
2013-08-28 03:31:00,62.6,59.3,29.68,East,90,0.0,0.0,89,0.04,,,0.08,VWS V14.01,2013-08-28 10:31:00,
2013-08-28 03:33:00,62.6,59.3,29.68,East,90,0.0,0.0,89,0.04,,,0.08,VWS V14.01,2013-08-28 10:33:00,
2013-08-28 03:34:00,62.6,59.3,29.68,East,90,0.0,0.0,89,0.04,,,0.08,VWS V14.01,2013-08-28 10:34:00,
2013-08-28 03:35:00,62.6,59.3,29.68,East,90,0.0,0.0,89,0.04,,,0.08,VWS V14.01,2013-08-28 10:35:00,
2013-08-28 03:36:00,62.6,59.3,29.68,East,90,0.0,0.0,89,0.04,,,0.08,VWS V14.01,2013-08-28 10:36:00,
2013-08-28 03:38:00,62.4,59.5,29.68,East,90,0.0,0.0,90,0.04,,,0.08,VWS V14.01,2013-08-28 10:38:00,
2013-08-28 03:39:00,62.4,59.5,29.68,East,90,0.0,0.0,90,0.04,,,0.08,VWS V14.01,2013-08-28 10:39:00,
2013-08-28 03:40:00,62.4,59.5,29.68,East,90,0.0,0.0,90,0.04,,,0.08,VWS V14.01,2013-08-28 10:40:00,
2013-08-28 03:41:00,62.4,59.5,29.68,ESE,112,0.0,0.0,90,0.04,,,0.08,VWS V14.01,2013-08-28 10:41:00,
2013-08-28 03:43:00,62.2,59.3,29.68,East,90,0.0,0.0,90,0.04,,,0.08,VWS V14.01,2013-08-28 10:43:00,
2013-08-28 03:44:00,62.2,59.3,29.68,East,90,0.0,0.0,90,0.04,,,0.08,VWS V14.01,2013-08-28 10:44:00,
2013-08-28 03:45:00,62.2,59.3,29.68,East,90,1.6,1.6,90,0.04,,,0.08,VWS V14.01,2013-08-28 10:45:00,
2013-08-28 03:46:00,62.2,59.0,29.68,East,90,0.0,1.6,89,0.04,,,0.08,VWS V14.01,2013-08-28 10:46:00,
2013-08-28 03:48:00,62.1,58.8,29.68,ENE,68,2.5,3.1,89,0.04,,,0.08,VWS V14.01,2013-08-28 10:48:00,
2013-08-28 03:49:00,62.1,58.8,29.68,ENE,68,2.5,3.1,89,0.04,,,0.08,VWS V14.01,2013-08-28 10:49:00,
2013-08-28 03:50:00,62.1,58.8,29.68,ESE,112,2.9,3.1,89,0.04,,,0.08,VWS V14.01,2013-08-28 10:50:00,
2013-08-28 03:51:00,62.1,58.8,29.68,East,90,1.6,3.1,89,0.04,,,0.08,VWS V14.01,2013-08-28 10:51:00,
2013-08-28 03:54:00,62.1,58.8,29.68,East,90,0.0,3.1,89,0.04,,,0.08,VWS V14.01,2013-08-28 10:54:00,
2013-08-28 03:55:00,62.1,58.8,29.68,East,90,0.0,3.1,89,0.04,,,0.08,VWS V14.01,2013-08-28 10:55:00,
2013-08-28 03:56:00,62.2,59.3,29.68,ENE,68,0.0,3.1,90,0.00,,,0.08,VWS V14.01,2013-08-28 10:56:00,
2013-08-28 03:59:00,62.2,59.3,29.68,SE,135,0.0,3.1,90,0.00,,,0.08,VWS V14.01,2013-08-28 10:59:00,
2013-08-28 04:00:00,62.2,59.3,29.68,NNW,338,0.0,3.1,90,0.00,,,0.08,VWS V14.01,2013-08-28 11:00:00,
2013-08-28 04:01:00,62.2,59.3,29.68,WSW,248,0.0,3.1,90,0.00,,,0.08,VWS V14.01,2013-08-28 11:01:00,
2013-08-28 04:02:00,62.2,59.3,29.68,WSW,248,0.0,3.1,90,0.00,,,0.08,VWS V14.01,2013-08-28 11:02:00,
2013-08-28 04:04:00,62.1,59.1,29.68,ESE,112,0.0,2.9,90,0.00,,,0.08,VWS V14.01,2013-08-28 11:04:00,
2013-08-28 04:05:00,62.1,59.1,29.68,East,90,0.9,2.9,90,0.00,,,0.08,VWS V14.01,2013-08-28 11:05:00,
2013-08-28 04:06:00,62.1,59.1,29.68,East,90,0.0,2.9,90,0.00,,,0.08,VWS V14.01,2013-08-28 11:06:00,
2013-08-28 04:07:00,62.1,59.1,29.68,East,90,0.0,1.6,90,0.00,,,0.08,VWS V14.01,2013-08-28 11:07:00,
2013-08-28 04:09:00,62.1,59.1,29.68,East,90,0.0,0.9,90,0.00,,,0.08,VWS V14.01,2013-08-28 11:09:00,
2013-08-28 04:10:00,62.1,59.1,29.68,East,90,0.0,0.9,90,0.00,,,0.08,VWS V14.01,2013-08-28 11:10:00,
2013-08-28 04:11:00,62.1,59.1,29.68,East,90,0.0,0.9,90,0.00,,,0.08,VWS V14.01,2013-08-28 11:11:00,
2013-08-28 04:12:00,62.1,59.1,29.68,East,90,0.0,0.9,90,0.00,,,0.08,VWS V14.01,2013-08-28 11:12:00,
2013-08-28 04:14:00,62.2,59.3,29.68,East,90,0.0,0.9,90,0.00,,,0.08,VWS V14.01,2013-08-28 11:14:00,
2013-08-28 04:16:00,62.2,59.3,29.68,East,90,0.0,0.9,90,0.00,,,0.08,VWS V14.01,2013-08-28 11:16:00,
2013-08-28 04:17:00,62.2,59.3,29.68,ESE,112,0.0,0.9,90,0.00,,,0.08,VWS V14.01,2013-08-28 11:17:00,
2013-08-28 04:19:00,62.2,59.3,29.68,ESE,112,0.0,0.9,90,0.00,,,0.08,VWS V14.01,2013-08-28 11:19:00,
2013-08-28 04:21:00,62.2,59.3,29.68,ESE,112,0.0,0.9,90,0.00,,,0.08,VWS V14.01,2013-08-28 11:21:00,
2013-08-28 04:22:00,62.2,59.3,29.68,ESE,112,0.0,0.9,90,0.00,,,0.08,VWS V14.01,2013-08-28 11:22:00,
2013-08-28 04:24:00,62.2,59.3,29.68,ESE,112,0.0,0.0,90,0.00,,,0.08,VWS V14.01,2013-08-28 11:24:00,
2013-08-28 04:25:00,62.2,59.3,29.68,ESE,112,0.0,0.0,90,0.00,,,0.08,VWS V14.01,2013-08-28 11:25:00,
2013-08-28 04:26:00,62.2,59.3,29.68,ESE,112,0.0,0.0,90,0.00,,,0.08,VWS V14.01,2013-08-28 11:26:00,
2013-08-28 04:27:00,62.2,59.3,29.68,ESE,112,0.0,0.0,90,0.00,,,0.08,VWS V14.01,2013-08-28 11:27:00,
2013-08-28 04:28:00,62.2,59.3,29.68,ESE,112,0.0,0.0,90,0.00,,,0.08,VWS V14.01,2013-08-28 11:28:00,
2013-08-28 04:29:00,62.2,59.3,29.68,ESE,112,0.0,0.0,90,0.00,,,0.08,VWS V14.01,2013-08-28 11:29:00,
2013-08-28 04:30:00,62.2,59.3,29.68,ESE,112,0.0,0.0,90,0.00,,,0.08,VWS V14.01,2013-08-28 11:30:00,
2013-08-28 04:31:00,62.2,59.3,29.68,ESE,112,0.0,0.0,90,0.00,,,0.08,VWS V14.01,2013-08-28 11:31:00,
2013-08-28 04:32:00,62.2,59.3,29.68,ESE,112,0.0,0.0,90,0.00,,,0.08,VWS V14.01,2013-08-28 11:32:00,
2013-08-28 04:33:00,62.1,59.1,29.68,ESE,112,0.0,0.0,90,0.00,,,0.08,VWS V14.01,2013-08-28 11:33:00,
2013-08-28 04:34:00,62.1,59.1,29.68,ESE,112,0.0,0.0,90,0.00,,,0.08,VWS V14.01,2013-08-28 11:34:00,
2013-08-28 04:35:00,62.1,59.1,29.68,ESE,112,0.0,0.0,90,0.00,,,0.08,VWS V14.01,2013-08-28 11:35:00,
2013-08-28 04:36:00,62.1,59.1,29.68,ESE,112,0.0,0.0,90,0.00,,,0.08,VWS V14.01,2013-08-28 11:36:00,
2013-08-28 04:37:00,62.1,59.1,29.68,ESE,112,0.0,0.0,90,0.00,,,0.08,VWS V14.01,2013-08-28 11:37:00,
2013-08-28 04:38:00,62.1,59.1,29.68,ESE,112,0.0,0.0,90,0.00,,,0.08,VWS V14.01,2013-08-28 11:38:00,
2013-08-28 04:39:00,62.1,59.4,29.68,ESE,112,0.0,0.0,91,0.00,,,0.08,VWS V14.01,2013-08-28 11:39:00,
2013-08-28 04:40:00,62.1,59.4,29.68,ESE,112,0.0,0.0,91,0.00,,,0.08,VWS V14.01,2013-08-28 11:40:00,
2013-08-28 04:41:00,62.1,59.1,29.68,ESE,112,0.0,0.0,90,0.00,,,0.08,VWS V14.01,2013-08-28 11:41:00,
2013-08-28 04:42:00,62.1,59.1,29.68,ESE,112,0.0,0.0,90,0.00,,,0.08,VWS V14.01,2013-08-28 11:42:00,
2013-08-28 04:43:00,62.1,59.1,29.68,ESE,112,0.0,0.0,90,0.00,,,0.08,VWS V14.01,2013-08-28 11:43:00,
2013-08-28 04:44:00,62.2,59.3,29.68,ESE,112,0.0,0.0,90,0.00,,,0.08,VWS V14.01,2013-08-28 11:44:00,
2013-08-28 04:45:00,62.2,59.3,29.68,ESE,112,0.0,0.0,90,0.00,,,0.08,VWS V14.01,2013-08-28 11:45:00,
2013-08-28 04:46:00,62.2,59.3,29.68,ESE,112,0.0,0.0,90,0.00,,,0.08,VWS V14.01,2013-08-28 11:46:00,
2013-08-28 04:47:00,62.2,59.3,29.68,ESE,112,0.0,0.0,90,0.00,,,0.08,VWS V14.01,2013-08-28 11:47:00,
2013-08-28 04:49:00,62.2,59.3,29.68,ESE,112,0.0,0.0,90,0.00,,,0.08,VWS V14.01,2013-08-28 11:49:00,
2013-08-28 04:50:00,62.2,59.3,29.68,ESE,112,0.0,0.0,90,0.00,,,0.08,VWS V14.01,2013-08-28 11:50:00,
2013-08-28 04:51:00,62.2,59.3,29.68,ESE,112,0.0,0.0,90,0.00,,,0.08,VWS V14.01,2013-08-28 11:51:00,
2013-08-28 04:52:00,62.2,59.3,29.68,ESE,112,0.0,0.0,90,0.00,,,0.08,VWS V14.01,2013-08-28 11:52:00,
2013-08-28 04:54:00,62.2,59.3,29.68,ESE,112,0.0,0.0,90,0.00,,,0.08,VWS V14.01,2013-08-28 11:54:00,
2013-08-28 04:55:00,62.2,59.3,29.68,ESE,112,0.0,0.0,90,0.00,,,0.08,VWS V14.01,2013-08-28 11:55:00,
2013-08-28 04:56:00,62.2,59.3,29.68,ESE,112,0.0,0.0,90,0.00,,,0.08,VWS V14.01,2013-08-28 11:56:00,
2013-08-28 04:57:00,62.2,59.3,29.68,ESE,112,0.0,0.0,90,0.00,,,0.08,VWS V14.01,2013-08-28 11:57:00,
2013-08-28 04:59:00,62.2,59.3,29.68,East,90,0.0,0.0,90,0.00,,,0.08,VWS V14.01,2013-08-28 11:59:00,
2013-08-28 05:00:00,62.2,59.3,29.68,SE,135,0.0,0.0,90,0.00,,,0.08,VWS V14.01,2013-08-28 12:00:00,
2013-08-28 05:01:00,62.1,59.1,29.68,SE,135,0.0,0.0,90,0.00,,,0.08,VWS V14.01,2013-08-28 12:01:00,
2013-08-28 05:02:00,62.1,59.1,29.68,SE,135,0.0,0.0,90,0.00,,,0.08,VWS V14.01,2013-08-28 12:02:00,
2013-08-28 05:04:00,62.1,59.1,29.68,SE,135,0.0,0.0,90,0.00,,,0.08,VWS V14.01,2013-08-28 12:04:00,
2013-08-28 05:05:00,62.1,59.1,29.68,SE,135,0.0,0.0,90,0.00,,,0.08,VWS V14.01,2013-08-28 12:05:00,
2013-08-28 05:06:00,62.1,59.1,29.68,SE,135,0.0,0.0,90,0.00,,,0.08,VWS V14.01,2013-08-28 12:06:00,
2013-08-28 05:07:00,62.1,59.1,29.68,SE,135,0.0,0.0,90,0.00,,,0.08,VWS V14.01,2013-08-28 12:07:00,
2013-08-28 05:09:00,62.1,59.1,29.68,SE,135,0.0,0.0,90,0.00,,,0.08,VWS V14.01,2013-08-28 12:09:00,
2013-08-28 05:10:00,62.1,59.1,29.68,SE,135,0.0,0.0,90,0.00,,,0.08,VWS V14.01,2013-08-28 12:10:00,
2013-08-28 05:11:00,62.2,59.3,29.68,SE,135,0.0,0.0,90,0.00,,,0.08,VWS V14.01,2013-08-28 12:11:00,
2013-08-28 05:12:00,62.2,59.3,29.68,SE,135,0.0,0.0,90,0.00,,,0.08,VWS V14.01,2013-08-28 12:12:00,
2013-08-28 05:14:00,62.2,59.3,29.68,SE,135,0.0,0.0,90,0.00,,,0.08,VWS V14.01,2013-08-28 12:14:00,
2013-08-28 05:15:00,62.2,59.6,29.68,SE,135,0.0,0.0,91,0.00,,,0.08,VWS V14.01,2013-08-28 12:15:00,
2013-08-28 05:17:00,62.2,59.3,29.68,SE,135,0.0,0.0,90,0.00,,,0.08,VWS V14.01,2013-08-28 12:17:00,
2013-08-28 05:20:00,62.2,59.6,29.68,SE,135,0.0,0.0,91,0.00,,,0.08,VWS V14.01,2013-08-28 12:20:00,
2013-08-28 05:21:00,62.2,59.6,29.68,SE,135,0.0,0.0,91,0.00,,,0.08,VWS V14.01,2013-08-28 12:21:00,
2013-08-28 05:22:00,62.4,59.5,29.68,SE,135,0.0,0.0,90,0.00,,,0.08,VWS V14.01,2013-08-28 12:22:00,
2013-08-28 05:25:00,62.4,59.5,29.68,SE,135,0.0,0.0,90,0.00,,,0.08,VWS V14.01,2013-08-28 12:25:00,
2013-08-28 05:26:00,62.4,59.5,29.68,SE,135,0.0,0.0,90,0.00,,,0.08,VWS V14.01,2013-08-28 12:26:00,
2013-08-28 05:27:00,62.2,59.3,29.68,SE,135,0.0,0.0,90,0.00,,,0.08,VWS V14.01,2013-08-28 12:27:00,
2013-08-28 05:28:00,62.2,59.3,29.68,ESE,112,0.0,0.0,90,0.00,,,0.08,VWS V14.01,2013-08-28 12:28:00,
2013-08-28 05:30:00,62.2,59.3,29.68,ESE,112,0.0,0.0,90,0.00,,,0.08,VWS V14.01,2013-08-28 12:30:00,
2013-08-28 05:31:00,62.2,59.3,29.68,ESE,112,0.0,0.0,90,0.00,,,0.08,VWS V14.01,2013-08-28 12:31:00,
2013-08-28 05:32:00,62.2,59.3,29.68,ESE,112,0.0,0.0,90,0.00,,,0.08,VWS V14.01,2013-08-28 12:32:00,
2013-08-28 05:33:00,62.2,59.3,29.68,ESE,112,0.0,0.0,90,0.00,,,0.08,VWS V14.01,2013-08-28 12:33:00,
2013-08-28 05:35:00,62.2,59.3,29.68,ESE,112,0.0,0.0,90,0.00,,,0.08,VWS V14.01,2013-08-28 12:35:00,
2013-08-28 05:36:00,62.1,59.1,29.68,ESE,112,0.0,0.0,90,0.00,,,0.08,VWS V14.01,2013-08-28 12:36:00,
2013-08-28 05:37:00,62.1,59.1,29.68,ESE,112,0.0,0.0,90,0.00,,,0.08,VWS V14.01,2013-08-28 12:37:00,
2013-08-28 05:38:00,62.1,59.1,29.68,East,90,0.0,0.0,90,0.00,,,0.08,VWS V14.01,2013-08-28 12:38:00,
2013-08-28 05:40:00,62.1,59.1,29.68,East,90,0.0,0.0,90,0.00,,,0.08,VWS V14.01,2013-08-28 12:40:00,
2013-08-28 05:41:00,62.1,59.1,29.68,SE,135,0.0,0.0,90,0.00,,,0.08,VWS V14.01,2013-08-28 12:41:00,
2013-08-28 05:42:00,62.1,59.1,29.68,ESE,112,0.0,0.0,90,0.00,,,0.08,VWS V14.01,2013-08-28 12:42:00,
2013-08-28 05:43:00,62.1,59.1,29.68,ESE,112,0.0,0.0,90,0.00,,,0.08,VWS V14.01,2013-08-28 12:43:00,
2013-08-28 05:45:00,62.1,59.1,29.68,ESE,112,0.0,0.0,90,0.00,,,0.08,VWS V14.01,2013-08-28 12:45:00,
2013-08-28 05:46:00,62.1,59.1,29.68,East,90,0.0,0.0,90,0.00,,,0.08,VWS V14.01,2013-08-28 12:46:00,
2013-08-28 05:47:00,62.1,59.1,29.68,East,90,0.0,0.0,90,0.00,,,0.08,VWS V14.01,2013-08-28 12:47:00,
2013-08-28 05:48:00,62.1,59.1,29.68,ESE,112,0.0,0.0,90,0.00,,,0.08,VWS V14.01,2013-08-28 12:48:00,
2013-08-28 05:50:00,62.1,59.1,29.68,WSW,248,0.0,0.0,90,0.00,,,0.08,VWS V14.01,2013-08-28 12:50:00,
2013-08-28 05:51:00,62.1,59.1,29.68,WSW,248,0.0,0.0,90,0.00,,,0.08,VWS V14.01,2013-08-28 12:51:00,
2013-08-28 05:52:00,62.1,59.1,29.68,WSW,248,0.0,0.0,90,0.00,,,0.08,VWS V14.01,2013-08-28 12:52:00,
2013-08-28 05:53:00,62.1,59.1,29.68,West,270,0.0,0.0,90,0.00,,,0.08,VWS V14.01,2013-08-28 12:53:00,
2013-08-28 05:55:00,62.1,59.1,29.68,West,270,0.0,0.0,90,0.00,,,0.08,VWS V14.01,2013-08-28 12:55:00,
2013-08-28 05:56:00,62.1,59.1,29.68,West,270,0.0,0.0,90,0.00,,,0.08,VWS V14.01,2013-08-28 12:56:00,
2013-08-28 05:57:00,62.1,59.1,29.68,West,270,0.0,0.0,90,0.00,,,0.08,VWS V14.01,2013-08-28 12:57:00,
2013-08-28 05:58:00,62.1,59.1,29.68,West,270,0.0,0.0,90,0.00,,,0.08,VWS V14.01,2013-08-28 12:58:00,
2013-08-28 06:00:00,61.9,58.9,29.68,West,270,0.0,0.0,90,0.00,,,0.08,VWS V14.01,2013-08-28 13:00:00,
2013-08-28 06:01:00,61.9,58.9,29.68,West,270,0.0,0.0,90,0.00,,,0.08,VWS V14.01,2013-08-28 13:01:00,
2013-08-28 06:02:00,61.9,58.9,29.68,West,270,0.0,0.0,90,0.00,,,0.08,VWS V14.01,2013-08-28 13:02:00,
2013-08-28 06:03:00,61.9,58.9,29.68,West,270,0.0,0.0,90,0.00,,,0.08,VWS V14.01,2013-08-28 13:03:00,
2013-08-28 06:04:00,61.9,58.9,29.68,West,270,0.0,0.0,90,0.00,,,0.08,VWS V14.01,2013-08-28 13:04:00,
2013-08-28 06:05:00,61.9,58.9,29.68,West,270,0.0,0.0,90,0.00,,,0.08,VWS V14.01,2013-08-28 13:05:00,
2013-08-28 06:06:00,61.9,59.2,29.68,West,270,0.0,0.0,91,0.00,,,0.08,VWS V14.01,2013-08-28 13:06:00,
2013-08-28 06:07:00,61.9,59.2,29.68,West,270,0.0,0.0,91,0.00,,,0.08,VWS V14.01,2013-08-28 13:07:00,
2013-08-28 06:08:00,62.1,59.4,29.68,West,270,0.0,0.0,91,0.00,,,0.08,VWS V14.01,2013-08-28 13:08:00,
2013-08-28 06:09:00,62.1,59.4,29.68,West,270,0.0,0.0,91,0.00,,,0.08,VWS V14.01,2013-08-28 13:09:00,
2013-08-28 06:10:00,62.1,59.4,29.68,West,270,0.0,0.0,91,0.00,,,0.08,VWS V14.01,2013-08-28 13:10:00,
2013-08-28 06:11:00,61.9,59.2,29.68,West,270,0.0,0.0,91,0.00,,,0.08,VWS V14.01,2013-08-28 13:11:00,
2013-08-28 06:12:00,61.9,59.2,29.68,West,270,0.0,0.0,91,0.00,,,0.08,VWS V14.01,2013-08-28 13:12:00,
2013-08-28 06:14:00,61.9,59.2,29.68,West,270,0.0,0.0,91,0.00,,,0.08,VWS V14.01,2013-08-28 13:14:00,
2013-08-28 06:15:00,61.9,59.2,29.68,WNW,292,0.0,0.0,91,0.00,,,0.08,VWS V14.01,2013-08-28 13:15:00,
2013-08-28 06:16:00,61.9,58.9,29.68,WNW,292,0.0,0.0,90,0.00,,,0.08,VWS V14.01,2013-08-28 13:16:00,
2013-08-28 06:17:00,61.9,58.9,29.68,WNW,292,0.0,0.0,90,0.00,,,0.08,VWS V14.01,2013-08-28 13:17:00,
2013-08-28 06:19:00,61.9,59.2,29.68,WNW,292,0.0,0.0,91,0.00,,,0.08,VWS V14.01,2013-08-28 13:19:00,
2013-08-28 06:20:00,61.9,59.2,29.68,WNW,292,0.0,0.0,91,0.00,,,0.08,VWS V14.01,2013-08-28 13:20:00,
2013-08-28 06:21:00,61.9,59.2,29.68,WNW,292,0.0,0.0,91,0.00,,,0.08,VWS V14.01,2013-08-28 13:21:00,
2013-08-28 06:22:00,61.9,59.2,29.68,WNW,292,0.0,0.0,91,0.00,,,0.08,VWS V14.01,2013-08-28 13:22:00,
2013-08-28 06:24:00,61.9,59.2,29.68,WNW,292,0.0,0.0,91,0.00,,,0.08,VWS V14.01,2013-08-28 13:24:00,
2013-08-28 06:25:00,61.9,59.2,29.68,WNW,292,0.0,0.0,91,0.00,,,0.08,VWS V14.01,2013-08-28 13:25:00,
2013-08-28 06:27:00,61.9,59.2,29.68,WNW,292,0.0,0.0,91,0.00,,,0.08,VWS V14.01,2013-08-28 13:27:00,
2013-08-28 06:29:00,61.9,59.2,29.68,WNW,292,0.0,0.0,91,0.00,,,0.08,VWS V14.01,2013-08-28 13:29:00,
2013-08-28 06:30:00,61.9,59.2,29.68,WNW,292,0.0,0.0,91,0.00,,,0.08,VWS V14.01,2013-08-28 13:30:00,
2013-08-28 06:32:00,61.9,59.2,29.68,WNW,292,0.0,0.0,91,0.00,,,0.08,VWS V14.01,2013-08-28 13:32:00,
2013-08-28 06:34:00,61.9,59.2,29.68,WNW,292,0.0,0.0,91,0.00,,,0.08,VWS V14.01,2013-08-28 13:34:00,
2013-08-28 06:35:00,61.9,59.2,29.68,WNW,292,0.0,0.0,91,0.00,,,0.08,VWS V14.01,2013-08-28 13:35:00,
2013-08-28 06:36:00,61.9,59.2,29.68,WNW,292,0.0,0.0,91,0.00,,,0.08,VWS V14.01,2013-08-28 13:36:00,
2013-08-28 06:37:00,61.9,59.2,29.68,WNW,292,0.0,0.0,91,0.00,,,0.08,VWS V14.01,2013-08-28 13:37:00,
2013-08-28 06:40:00,61.9,59.2,29.68,WNW,292,0.0,0.0,91,0.00,,,0.08,VWS V14.01,2013-08-28 13:40:00,
2013-08-28 06:41:00,61.9,59.2,29.68,WNW,292,0.0,0.0,91,0.00,,,0.08,VWS V14.01,2013-08-28 13:41:00,
2013-08-28 06:42:00,61.9,59.2,29.68,WNW,292,0.0,0.0,91,0.00,,,0.08,VWS V14.01,2013-08-28 13:42:00,
2013-08-28 06:45:00,61.9,59.2,29.68,WNW,292,0.0,0.0,91,0.00,,,0.08,VWS V14.01,2013-08-28 13:45:00,
2013-08-28 06:46:00,61.9,59.2,29.68,WNW,292,0.0,0.0,91,0.00,,,0.08,VWS V14.01,2013-08-28 13:46:00,
2013-08-28 06:47:00,61.9,59.2,29.71,WNW,292,0.0,0.0,91,0.00,,,0.08,VWS V14.01,2013-08-28 13:47:00,
2013-08-28 06:50:00,61.9,59.2,29.71,WNW,292,0.0,0.0,91,0.00,,,0.08,VWS V14.01,2013-08-28 13:50:00,
2013-08-28 06:51:00,61.9,59.2,29.71,WNW,292,0.0,0.0,91,0.00,,,0.08,VWS V14.01,2013-08-28 13:51:00,
2013-08-28 06:52:00,61.9,59.2,29.71,WNW,292,0.0,0.0,91,0.00,,,0.08,VWS V14.01,2013-08-28 13:52:00,
2013-08-28 06:55:00,61.9,59.2,29.71,WNW,292,0.0,0.0,91,0.00,,,0.08,VWS V14.01,2013-08-28 13:55:00,
2013-08-28 06:56:00,61.9,59.2,29.71,WNW,292,0.0,0.0,91,0.00,,,0.08,VWS V14.01,2013-08-28 13:56:00,
2013-08-28 06:57:00,61.7,59.0,29.71,WNW,292,0.0,0.0,91,0.00,,,0.08,VWS V14.01,2013-08-28 13:57:00,
2013-08-28 06:58:00,61.7,59.0,29.71,WNW,292,0.0,0.0,91,0.00,,,0.08,VWS V14.01,2013-08-28 13:58:00,
2013-08-28 07:00:00,61.7,59.0,29.71,WNW,292,0.0,0.0,91,0.00,,,0.08,VWS V14.01,2013-08-28 14:00:00,
2013-08-28 07:01:00,61.9,59.2,29.71,WNW,292,0.0,0.0,91,0.00,,,0.08,VWS V14.01,2013-08-28 14:01:00,
2013-08-28 07:02:00,61.9,59.2,29.71,WNW,292,0.0,0.0,91,0.00,,,0.08,VWS V14.01,2013-08-28 14:02:00,
2013-08-28 07:03:00,61.9,59.2,29.71,WNW,292,0.0,0.0,91,0.00,,,0.08,VWS V14.01,2013-08-28 14:03:00,
2013-08-28 07:05:00,61.9,59.2,29.71,WSW,248,0.0,0.0,91,0.00,,,0.08,VWS V14.01,2013-08-28 14:05:00,
2013-08-28 07:06:00,61.9,59.2,29.71,SSW,202,0.0,0.0,91,0.00,,,0.08,VWS V14.01,2013-08-28 14:06:00,
2013-08-28 07:07:00,61.9,59.2,29.71,South,180,0.0,0.0,91,0.00,,,0.08,VWS V14.01,2013-08-28 14:07:00,
2013-08-28 07:08:00,61.9,59.2,29.71,ESE,112,0.0,0.0,91,0.00,,,0.08,VWS V14.01,2013-08-28 14:08:00,
2013-08-28 07:10:00,61.9,59.2,29.71,ESE,112,0.0,0.0,91,0.00,,,0.08,VWS V14.01,2013-08-28 14:10:00,
2013-08-28 07:11:00,61.9,59.2,29.71,ESE,112,0.0,0.0,91,0.00,,,0.08,VWS V14.01,2013-08-28 14:11:00,
2013-08-28 07:12:00,61.9,59.2,29.71,WNW,292,0.0,0.0,91,0.00,,,0.08,VWS V14.01,2013-08-28 14:12:00,
2013-08-28 07:13:00,61.9,59.2,29.71,WNW,292,0.0,0.0,91,0.00,,,0.08,VWS V14.01,2013-08-28 14:13:00,
2013-08-28 07:15:00,61.9,59.2,29.71,WNW,292,0.0,0.0,91,0.00,,,0.08,VWS V14.01,2013-08-28 14:15:00,
2013-08-28 07:16:00,61.9,59.2,29.71,WNW,292,0.0,0.0,91,0.00,,,0.08,VWS V14.01,2013-08-28 14:16:00,
2013-08-28 07:17:00,61.9,59.2,29.71,WNW,292,0.0,0.0,91,0.00,,,0.08,VWS V14.01,2013-08-28 14:17:00,
2013-08-28 07:18:00,61.9,59.2,29.71,WNW,292,0.0,0.0,91,0.00,,,0.08,VWS V14.01,2013-08-28 14:18:00,
2013-08-28 07:20:00,62.1,59.4,29.71,WNW,292,0.0,0.0,91,0.00,,,0.08,VWS V14.01,2013-08-28 14:20:00,
2013-08-28 07:21:00,62.1,59.4,29.71,WNW,292,0.0,0.0,91,0.00,,,0.08,VWS V14.01,2013-08-28 14:21:00,
2013-08-28 07:22:00,62.1,59.4,29.71,WSW,248,0.0,0.0,91,0.00,,,0.08,VWS V14.01,2013-08-28 14:22:00,
2013-08-28 07:23:00,62.1,59.4,29.71,WSW,248,0.9,0.9,91,0.00,,,0.08,VWS V14.01,2013-08-28 14:23:00,
2013-08-28 07:26:00,61.9,59.2,29.71,SSE,158,0.0,0.9,91,0.00,,,0.08,VWS V14.01,2013-08-28 14:26:00,
2013-08-28 07:27:00,61.9,59.5,29.71,SSW,202,0.9,0.9,92,0.00,,,0.08,VWS V14.01,2013-08-28 14:27:00,
2013-08-28 07:28:00,61.9,59.5,29.71,South,180,0.0,0.9,92,0.00,,,0.08,VWS V14.01,2013-08-28 14:28:00,
2013-08-28 07:31:00,62.1,59.7,29.71,South,180,0.0,0.9,92,0.00,,,0.08,VWS V14.01,2013-08-28 14:31:00,
2013-08-28 07:32:00,62.1,59.7,29.71,South,180,0.0,0.9,92,0.00,,,0.08,VWS V14.01,2013-08-28 14:32:00,
2013-08-28 07:33:00,62.1,59.7,29.71,South,180,0.0,0.9,92,0.00,,,0.08,VWS V14.01,2013-08-28 14:33:00,
2013-08-28 07:36:00,62.1,59.7,29.71,SSE,158,0.0,0.9,92,0.00,,,0.08,VWS V14.01,2013-08-28 14:36:00,
2013-08-28 07:37:00,62.1,59.7,29.71,SSE,158,0.0,0.9,92,0.00,,,0.08,VWS V14.01,2013-08-28 14:37:00,
2013-08-28 07:39:00,62.1,59.7,29.71,SSE,158,0.0,0.9,92,0.00,,,0.08,VWS V14.01,2013-08-28 14:39:00,
2013-08-28 07:41:00,62.2,59.9,29.71,SSE,158,0.0,0.0,92,0.00,,,0.08,VWS V14.01,2013-08-28 14:41:00,
2013-08-28 07:42:00,62.2,59.9,29.71,South,180,0.0,0.0,92,0.00,,,0.08,VWS V14.01,2013-08-28 14:42:00,
2013-08-28 07:44:00,62.2,59.9,29.71,SSE,158,0.0,0.0,92,0.00,,,0.08,VWS V14.01,2013-08-28 14:44:00,
2013-08-28 07:46:00,62.2,59.9,29.71,SSE,158,0.0,0.0,92,0.00,,,0.08,VWS V14.01,2013-08-28 14:46:00,
2013-08-28 07:47:00,62.4,60.1,29.71,SSE,158,0.0,0.0,92,0.00,,,0.08,VWS V14.01,2013-08-28 14:47:00,
2013-08-28 07:49:00,62.4,60.1,29.71,SSE,158,0.0,0.0,92,0.00,,,0.08,VWS V14.01,2013-08-28 14:49:00,
2013-08-28 07:51:00,62.6,59.9,29.71,SSE,158,0.0,0.0,91,0.00,,,0.08,VWS V14.01,2013-08-28 14:51:00,
2013-08-28 07:52:00,62.8,60.1,29.71,SSE,158,0.0,0.0,91,0.00,,,0.08,VWS V14.01,2013-08-28 14:52:00,
2013-08-28 07:55:00,62.8,60.1,29.71,South,180,0.0,0.0,91,0.00,,,0.08,VWS V14.01,2013-08-28 14:55:00,
2013-08-28 07:56:00,63.0,60.3,29.71,South,180,0.0,0.0,91,0.00,,,0.08,VWS V14.01,2013-08-28 14:56:00,
2013-08-28 07:57:00,63.0,60.3,29.71,South,180,0.0,0.0,91,0.00,,,0.08,VWS V14.01,2013-08-28 14:57:00,
2013-08-28 08:00:00,63.0,60.3,29.71,South,180,0.0,0.0,91,0.00,,,0.08,VWS V14.01,2013-08-28 15:00:00,
2013-08-28 08:01:00,63.0,60.3,29.71,South,180,0.0,0.0,91,0.00,,,0.08,VWS V14.01,2013-08-28 15:01:00,
2013-08-28 08:02:00,63.0,60.3,29.71,South,180,0.0,0.0,91,0.00,,,0.08,VWS V14.01,2013-08-28 15:02:00,
2013-08-28 08:05:00,63.1,60.5,29.71,South,180,0.0,0.0,91,0.00,,,0.08,VWS V14.01,2013-08-28 15:05:00,
2013-08-28 08:06:00,63.1,60.5,29.71,South,180,0.0,0.0,91,0.00,,,0.08,VWS V14.01,2013-08-28 15:06:00,
2013-08-28 08:07:00,63.1,60.5,29.71,South,180,0.0,0.0,91,0.00,,,0.08,VWS V14.01,2013-08-28 15:07:00,
2013-08-28 08:10:00,63.1,60.5,29.71,East,90,0.0,0.0,91,0.00,,,0.08,VWS V14.01,2013-08-28 15:10:00,
2013-08-28 08:11:00,63.3,60.7,29.71,East,90,0.0,0.0,91,0.00,,,0.08,VWS V14.01,2013-08-28 15:11:00,
2013-08-28 08:12:00,63.3,60.7,29.71,East,90,0.0,0.0,91,0.00,,,0.08,VWS V14.01,2013-08-28 15:12:00,
2013-08-28 08:15:00,63.5,60.8,29.71,East,90,0.0,0.0,91,0.00,,,0.08,VWS V14.01,2013-08-28 15:15:00,
2013-08-28 08:16:00,63.5,60.5,29.71,East,90,0.0,0.0,90,0.00,,,0.08,VWS V14.01,2013-08-28 15:16:00,
2013-08-28 08:17:00,63.5,60.5,29.71,East,90,0.0,0.0,90,0.00,,,0.08,VWS V14.01,2013-08-28 15:17:00,
2013-08-28 08:21:00,63.7,60.7,29.71,East,90,0.0,0.0,90,0.00,,,0.08,VWS V14.01,2013-08-28 15:21:00,
2013-08-28 08:22:00,63.9,60.9,29.71,East,90,0.0,0.0,90,0.00,,,0.08,VWS V14.01,2013-08-28 15:22:00,
2013-08-28 08:26:00,63.9,60.9,29.71,East,90,0.0,0.0,90,0.00,,,0.00,VWS V14.01,2013-08-28 15:26:00,
2013-08-28 08:27:00,63.9,60.9,29.71,East,90,0.0,0.0,90,0.00,,,0.08,VWS V14.01,2013-08-28 15:27:00,
2013-08-28 08:28:00,63.9,60.9,29.71,East,90,0.0,0.0,90,0.00,,,0.08,VWS V14.01,2013-08-28 15:28:00,
2013-08-28 08:31:00,63.9,60.9,29.71,East,90,0.0,0.0,90,0.00,,,0.08,VWS V14.01,2013-08-28 15:31:00,
2013-08-28 08:32:00,63.9,60.9,29.71,East,90,0.0,0.0,90,0.00,,,0.08,VWS V14.01,2013-08-28 15:32:00,
2013-08-28 08:33:00,63.9,60.9,29.71,East,90,0.0,0.0,90,0.00,,,0.08,VWS V14.01,2013-08-28 15:33:00,
2013-08-28 08:36:00,63.9,60.9,29.71,East,90,0.0,0.0,90,0.00,,,0.08,VWS V14.01,2013-08-28 15:36:00,
2013-08-28 08:37:00,63.9,60.9,29.71,East,90,0.0,0.0,90,0.00,,,0.08,VWS V14.01,2013-08-28 15:37:00,
2013-08-28 08:38:00,63.9,60.9,29.71,East,90,0.0,0.0,90,0.00,,,0.08,VWS V14.01,2013-08-28 15:38:00,
2013-08-28 08:41:00,64.0,61.0,29.71,East,90,0.0,0.0,90,0.00,,,0.08,VWS V14.01,2013-08-28 15:41:00,
2013-08-28 08:42:00,64.0,61.0,29.71,East,90,0.0,0.0,90,0.00,,,0.08,VWS V14.01,2013-08-28 15:42:00,
2013-08-28 08:43:00,64.2,61.2,29.71,East,90,0.0,0.0,90,0.00,,,0.00,VWS V14.01,2013-08-28 15:43:00,
2013-08-28 08:46:00,64.4,61.1,29.71,East,90,0.0,0.0,89,0.00,,,0.08,VWS V14.01,2013-08-28 15:46:00,
2013-08-28 08:47:00,64.4,61.1,29.71,East,90,0.0,0.0,89,0.00,,,0.08,VWS V14.01,2013-08-28 15:47:00,
2013-08-28 08:48:00,64.4,61.1,29.71,East,90,0.0,0.0,89,0.00,,,0.08,VWS V14.01,2013-08-28 15:48:00,
2013-08-28 08:49:00,64.6,61.3,29.71,East,90,0.0,0.0,89,0.00,,,0.08,VWS V14.01,2013-08-28 15:49:00,
2013-08-28 08:51:00,64.6,61.3,29.71,ESE,112,0.0,0.0,89,0.00,,,0.08,VWS V14.01,2013-08-28 15:51:00,
2013-08-28 08:52:00,64.6,61.3,29.71,ESE,112,0.0,0.0,89,0.00,,,0.08,VWS V14.01,2013-08-28 15:52:00,
2013-08-28 08:53:00,64.6,61.3,29.71,East,90,0.0,0.0,89,0.00,,,0.08,VWS V14.01,2013-08-28 15:53:00,
2013-08-28 08:54:00,64.6,61.3,29.71,East,90,0.0,0.0,89,0.00,,,0.08,VWS V14.01,2013-08-28 15:54:00,
2013-08-28 08:56:00,64.6,61.3,29.71,East,90,0.0,0.0,89,0.00,,,0.08,VWS V14.01,2013-08-28 15:56:00,
2013-08-28 08:57:00,64.6,61.3,29.71,East,90,0.0,0.0,89,0.00,,,0.08,VWS V14.01,2013-08-28 15:57:00,
2013-08-28 08:58:00,64.6,61.3,29.71,East,90,0.0,0.0,89,0.00,,,0.08,VWS V14.01,2013-08-28 15:58:00,
2013-08-28 08:59:00,64.8,61.5,29.71,East,90,0.0,0.0,89,0.00,,,0.08,VWS V14.01,2013-08-28 15:59:00,
2013-08-28 09:01:00,64.9,61.6,29.71,East,90,0.0,0.0,89,0.00,,,0.08,VWS V14.01,2013-08-28 16:01:00,
2013-08-28 09:02:00,64.9,61.6,29.71,East,90,0.0,0.0,89,0.00,,,0.08,VWS V14.01,2013-08-28 16:02:00,
2013-08-28 09:03:00,64.9,61.6,29.71,East,90,0.0,0.0,89,0.00,,,0.08,VWS V14.01,2013-08-28 16:03:00,
2013-08-28 09:05:00,65.7,62.3,29.71,ENE,68,0.0,0.0,89,0.00,,,0.08,VWS V14.01,2013-08-28 16:05:00,
2013-08-28 09:06:00,65.8,62.2,29.71,NE,45,0.0,0.0,88,0.00,,,0.08,VWS V14.01,2013-08-28 16:06:00,
2013-08-28 09:07:00,65.8,62.2,29.71,NE,45,0.0,0.0,88,0.00,,,0.08,VWS V14.01,2013-08-28 16:07:00,
2013-08-28 09:08:00,66.2,62.5,29.71,NE,45,0.0,0.0,88,0.00,,,0.08,VWS V14.01,2013-08-28 16:08:00,
2013-08-28 09:10:00,66.4,62.7,29.71,ENE,68,0.0,0.0,88,0.00,,,0.08,VWS V14.01,2013-08-28 16:10:00,
2013-08-28 09:11:00,66.6,62.9,29.71,ENE,68,0.0,0.0,88,0.00,,,0.08,VWS V14.01,2013-08-28 16:11:00,
2013-08-28 09:12:00,66.6,62.9,29.71,ENE,68,0.0,0.0,88,0.00,,,0.08,VWS V14.01,2013-08-28 16:12:00,
2013-08-28 09:13:00,66.6,62.9,29.71,ENE,68,0.0,0.0,88,0.00,,,0.08,VWS V14.01,2013-08-28 16:13:00,
2013-08-28 09:15:00,66.6,62.9,29.71,ENE,68,0.0,0.0,88,0.00,,,0.08,VWS V14.01,2013-08-28 16:15:00,
2013-08-28 09:16:00,66.6,62.9,29.71,ENE,68,0.0,0.0,88,0.00,,,0.08,VWS V14.01,2013-08-28 16:16:00,
2013-08-28 09:17:00,66.6,62.9,29.71,ENE,68,0.0,0.0,88,0.00,,,0.08,VWS V14.01,2013-08-28 16:17:00,
2013-08-28 09:18:00,66.6,62.9,29.71,ENE,68,0.0,0.0,88,0.00,,,0.08,VWS V14.01,2013-08-28 16:18:00,
2013-08-28 09:19:00,66.4,62.4,29.71,ENE,68,0.0,0.0,87,0.00,,,0.08,VWS V14.01,2013-08-28 16:19:00,
2013-08-28 09:20:00,66.4,62.7,29.71,ENE,68,0.0,0.0,88,0.00,,,0.08,VWS V14.01,2013-08-28 16:20:00,
2013-08-28 09:21:00,66.4,62.7,29.71,ENE,68,0.0,0.0,88,0.00,,,0.08,VWS V14.01,2013-08-28 16:21:00,
2013-08-28 09:23:00,66.4,62.4,29.71,ENE,68,0.0,0.0,87,0.00,,,0.08,VWS V14.01,2013-08-28 16:23:00,
2013-08-28 09:24:00,66.4,62.4,29.71,ENE,68,0.0,0.0,87,0.00,,,0.08,VWS V14.01,2013-08-28 16:24:00,
2013-08-28 09:25:00,66.6,62.6,29.71,ENE,68,0.0,0.0,87,0.00,,,0.08,VWS V14.01,2013-08-28 16:25:00,
2013-08-28 09:26:00,66.6,62.6,29.71,ENE,68,0.0,0.0,87,0.00,,,0.08,VWS V14.01,2013-08-28 16:26:00,
2013-08-28 09:28:00,66.6,62.6,29.71,ENE,68,0.0,0.0,87,0.00,,,0.08,VWS V14.01,2013-08-28 16:28:00,
2013-08-28 09:29:00,66.6,62.6,29.71,East,90,0.0,0.0,87,0.00,,,0.08,VWS V14.01,2013-08-28 16:29:00,
2013-08-28 09:31:00,66.9,63.3,29.71,East,90,0.0,0.0,88,0.00,,,0.08,VWS V14.01,2013-08-28 16:31:00,
2013-08-28 09:32:00,66.9,63.3,29.71,East,90,0.0,0.0,88,0.00,,,0.08,VWS V14.01,2013-08-28 16:32:00,
2013-08-28 09:33:00,66.9,63.3,29.71,SSW,202,0.0,0.0,88,0.00,,,0.08,VWS V14.01,2013-08-28 16:33:00,
2013-08-28 09:34:00,66.9,63.3,29.71,SSW,202,0.0,0.0,88,0.00,,,0.08,VWS V14.01,2013-08-28 16:34:00,
2013-08-28 09:36:00,67.1,63.1,29.71,South,180,0.0,0.0,87,0.00,,,0.08,VWS V14.01,2013-08-28 16:36:00,
2013-08-28 09:38:00,67.8,63.8,29.71,SW,225,0.0,0.0,87,0.00,,,0.08,VWS V14.01,2013-08-28 16:38:00,
2013-08-28 09:39:00,67.8,63.8,29.71,SW,225,0.0,0.0,87,0.00,,,0.08,VWS V14.01,2013-08-28 16:39:00,
2013-08-28 09:41:00,67.8,63.8,29.71,ENE,68,0.0,0.0,87,0.00,,,0.08,VWS V14.01,2013-08-28 16:41:00,
2013-08-28 09:42:00,68.0,63.7,29.71,East,90,0.0,0.0,86,0.00,,,0.08,VWS V14.01,2013-08-28 16:42:00,
2013-08-28 09:43:00,68.0,63.7,29.71,East,90,0.0,0.0,86,0.00,,,0.08,VWS V14.01,2013-08-28 16:43:00,
2013-08-28 09:44:00,67.6,63.3,29.71,NW,315,0.0,0.0,86,0.00,,,0.08,VWS V14.01,2013-08-28 16:44:00,
2013-08-28 09:45:00,67.6,63.3,29.71,NNW,338,0.0,0.0,86,0.00,,,0.08,VWS V14.01,2013-08-28 16:45:00,
2013-08-28 09:46:00,67.6,63.3,29.71,ENE,68,0.0,0.0,86,0.00,,,0.08,VWS V14.01,2013-08-28 16:46:00,
2013-08-28 09:47:00,67.6,63.3,29.71,ENE,68,0.0,0.0,86,0.00,,,0.08,VWS V14.01,2013-08-28 16:47:00,
2013-08-28 09:48:00,67.6,63.3,29.71,ENE,68,0.0,0.0,86,0.00,,,0.08,VWS V14.01,2013-08-28 16:48:00,
2013-08-28 09:49:00,67.6,63.3,29.71,ENE,68,0.0,0.0,86,0.00,,,0.08,VWS V14.01,2013-08-28 16:49:00,
2013-08-28 09:50:00,67.6,63.3,29.71,ENE,68,0.0,0.0,86,0.00,,,0.08,VWS V14.01,2013-08-28 16:50:00,
2013-08-28 09:51:00,67.6,63.0,29.71,NNE,22,0.9,0.9,85,0.00,,,0.08,VWS V14.01,2013-08-28 16:51:00,
2013-08-28 09:52:00,67.6,63.0,29.71,NE,45,0.0,0.9,85,0.00,,,0.08,VWS V14.01,2013-08-28 16:52:00,
2013-08-28 09:53:00,67.6,63.0,29.71,NNW,338,0.0,0.9,85,0.00,,,0.08,VWS V14.01,2013-08-28 16:53:00,
2013-08-28 09:54:00,67.6,63.0,29.71,NNW,338,0.0,0.9,85,0.00,,,0.08,VWS V14.01,2013-08-28 16:54:00,
2013-08-28 09:55:00,67.6,63.0,29.71,ENE,68,0.0,0.9,85,0.00,,,0.08,VWS V14.01,2013-08-28 16:55:00,
2013-08-28 09:56:00,67.6,63.0,29.71,East,90,0.0,0.9,85,0.00,,,0.08,VWS V14.01,2013-08-28 16:56:00,
2013-08-28 09:57:00,67.6,63.0,29.71,NE,45,0.0,0.9,85,0.00,,,0.08,VWS V14.01,2013-08-28 16:57:00,
2013-08-28 09:58:00,67.8,62.8,29.71,NNE,22,0.0,0.9,84,0.00,,,0.08,VWS V14.01,2013-08-28 16:58:00,
2013-08-28 09:59:00,67.8,62.8,29.71,East,90,3.6,3.6,84,0.00,,,0.08,VWS V14.01,2013-08-28 16:59:00,
2013-08-28 10:00:00,67.8,62.8,29.71,East,90,2.5,3.6,84,0.00,,,0.08,VWS V14.01,2013-08-28 17:00:00,
2013-08-28 10:01:00,67.8,62.8,29.71,East,90,2.5,3.6,84,0.00,,,0.00,VWS V14.01,2013-08-28 17:01:00,
2013-08-28 10:02:00,67.8,62.8,29.71,East,90,2.2,3.6,84,0.00,,,0.08,VWS V14.01,2013-08-28 17:02:00,
2013-08-28 10:03:00,68.0,63.0,29.71,East,90,0.0,3.6,84,0.00,,,0.08,VWS V14.01,2013-08-28 17:03:00,
2013-08-28 10:04:00,68.0,63.0,29.71,ENE,68,0.0,3.6,84,0.00,,,0.08,VWS V14.01,2013-08-28 17:04:00,
2013-08-28 10:05:00,68.0,63.0,29.71,North,0,0.0,3.6,84,0.00,,,0.08,VWS V14.01,2013-08-28 17:05:00,
2013-08-28 10:06:00,68.2,62.8,29.71,ENE,68,3.8,3.8,83,0.00,,,0.08,VWS V14.01,2013-08-28 17:06:00,
2013-08-28 10:07:00,68.2,62.8,29.71,ENE,68,3.1,3.8,83,0.00,,,0.08,VWS V14.01,2013-08-28 17:07:00,
2013-08-28 10:08:00,68.2,62.8,29.71,East,90,0.0,3.8,83,0.00,,,0.08,VWS V14.01,2013-08-28 17:08:00,
2013-08-28 10:10:00,68.5,62.8,29.71,East,90,0.0,3.8,82,0.00,,,0.08,VWS V14.01,2013-08-28 17:10:00,
2013-08-28 10:12:00,68.7,62.7,29.71,NW,315,0.0,3.8,81,0.00,,,0.08,VWS V14.01,2013-08-28 17:12:00,
2013-08-28 10:13:00,68.9,62.8,29.71,NE,45,0.0,3.8,81,0.00,,,0.08,VWS V14.01,2013-08-28 17:13:00,
2013-08-28 10:15:00,68.9,62.8,29.71,NNW,338,1.6,3.8,81,0.00,,,0.08,VWS V14.01,2013-08-28 17:15:00,
2013-08-28 10:16:00,68.9,62.8,29.71,NE,45,1.6,3.8,81,0.00,,,0.08,VWS V14.01,2013-08-28 17:16:00,
2013-08-28 10:17:00,68.9,62.8,29.71,ENE,68,2.5,3.8,81,0.00,,,0.08,VWS V14.01,2013-08-28 17:17:00,
2013-08-28 10:18:00,68.9,62.8,29.71,WNW,292,1.3,3.8,81,0.00,,,0.08,VWS V14.01,2013-08-28 17:18:00,
2013-08-28 10:20:00,69.1,63.0,29.71,East,90,3.8,3.8,81,0.00,,,0.08,VWS V14.01,2013-08-28 17:20:00,
2013-08-28 10:21:00,69.4,63.4,29.71,East,90,0.0,3.8,81,0.00,,,0.08,VWS V14.01,2013-08-28 17:21:00,
2013-08-28 10:22:00,69.4,63.4,29.71,East,90,0.0,3.8,81,0.00,,,0.08,VWS V14.01,2013-08-28 17:22:00,
2013-08-28 10:23:00,69.4,63.4,29.71,East,90,1.3,3.8,81,0.00,,,0.08,VWS V14.01,2013-08-28 17:23:00,
2013-08-28 10:24:00,69.8,63.4,29.71,East,90,1.3,3.8,80,0.00,,,0.08,VWS V14.01,2013-08-28 17:24:00,
2013-08-28 10:25:00,69.8,63.4,29.71,WNW,292,0.0,3.8,80,0.00,,,0.08,VWS V14.01,2013-08-28 17:25:00,
2013-08-28 10:26:00,69.8,63.0,29.71,West,270,0.0,3.8,79,0.00,,,0.08,VWS V14.01,2013-08-28 17:26:00,
2013-08-28 10:27:00,69.8,63.0,29.71,NE,45,0.0,3.8,79,0.00,,,0.08,VWS V14.01,2013-08-28 17:27:00,
2013-08-28 10:28:00,69.8,63.0,29.71,NW,315,0.0,3.8,79,0.00,,,0.08,VWS V14.01,2013-08-28 17:28:00,
2013-08-28 10:29:00,69.8,63.0,29.71,NNW,338,0.0,3.8,79,0.00,,,0.08,VWS V14.01,2013-08-28 17:29:00,
2013-08-28 10:30:00,69.8,63.0,29.71,NW,315,0.0,3.8,79,0.00,,,0.08,VWS V14.01,2013-08-28 17:30:00,
2013-08-28 10:31:00,70.0,63.2,29.71,WNW,292,0.0,3.8,79,0.00,,,0.08,VWS V14.01,2013-08-28 17:31:00,
2013-08-28 10:33:00,70.0,63.2,29.71,West,270,0.0,3.8,79,0.00,,,0.08,VWS V14.01,2013-08-28 17:33:00,
2013-08-28 10:34:00,70.0,63.2,29.71,NE,45,0.0,3.8,79,0.00,,,0.08,VWS V14.01,2013-08-28 17:34:00,
2013-08-28 10:35:00,70.3,63.5,29.71,West,270,4.0,4.0,79,0.00,,,0.08,VWS V14.01,2013-08-28 17:35:00,
2013-08-28 10:36:00,70.2,63.3,29.71,NNW,338,0.0,4.0,79,0.00,,,0.08,VWS V14.01,2013-08-28 17:36:00,
2013-08-28 10:38:00,70.2,63.3,29.71,NE,45,0.0,4.0,79,0.00,,,0.08,VWS V14.01,2013-08-28 17:38:00,
2013-08-28 10:39:00,70.2,63.3,29.71,South,180,0.0,4.0,79,0.00,,,0.08,VWS V14.01,2013-08-28 17:39:00,
2013-08-28 10:41:00,70.3,63.5,29.71,WNW,292,0.0,4.0,79,0.00,,,0.08,VWS V14.01,2013-08-28 17:41:00,
2013-08-28 10:42:00,70.3,63.5,29.71,ESE,112,0.0,4.0,79,0.00,,,0.08,VWS V14.01,2013-08-28 17:42:00,
2013-08-28 10:43:00,70.3,63.5,29.71,NNW,338,0.0,4.0,79,0.00,,,0.08,VWS V14.01,2013-08-28 17:43:00,
2013-08-28 10:44:00,70.7,63.9,29.71,NNW,338,0.0,4.0,79,0.00,,,0.08,VWS V14.01,2013-08-28 17:44:00,
2013-08-28 10:46:00,70.7,63.5,29.71,ENE,68,0.0,4.0,78,0.00,,,0.08,VWS V14.01,2013-08-28 17:46:00,
2013-08-28 10:47:00,70.5,63.3,29.71,ENE,68,0.0,4.0,78,0.00,,,0.08,VWS V14.01,2013-08-28 17:47:00,
2013-08-28 10:48:00,70.5,63.3,29.74,NNE,22,0.0,4.0,78,0.00,,,0.08,VWS V14.01,2013-08-28 17:48:00,
2013-08-28 10:49:00,70.5,63.3,29.74,NE,45,0.0,4.0,78,0.00,,,0.08,VWS V14.01,2013-08-28 17:49:00,
2013-08-28 10:51:00,70.9,63.7,29.74,WNW,292,0.0,4.0,78,0.00,,,0.08,VWS V14.01,2013-08-28 17:51:00,
2013-08-28 10:52:00,70.9,63.7,29.74,WNW,292,0.0,4.0,78,0.00,,,0.08,VWS V14.01,2013-08-28 17:52:00,
2013-08-28 10:53:00,71.1,63.9,29.74,WNW,292,0.0,2.2,78,0.00,,,0.08,VWS V14.01,2013-08-28 17:53:00,
2013-08-28 10:54:00,71.1,63.9,29.74,NNW,338,0.0,2.2,78,0.00,,,0.08,VWS V14.01,2013-08-28 17:54:00,
2013-08-28 10:56:00,71.4,64.2,29.74,WSW,248,0.0,2.2,78,0.00,,,0.08,VWS V14.01,2013-08-28 17:56:00,
2013-08-28 10:57:00,71.4,64.2,29.74,WNW,292,0.0,2.2,78,0.00,,,0.08,VWS V14.01,2013-08-28 17:57:00,
2013-08-28 10:58:00,71.6,64.0,29.74,WNW,292,0.0,2.2,77,0.00,,,0.08,VWS V14.01,2013-08-28 17:58:00,
2013-08-28 10:59:00,71.6,64.0,29.74,WNW,292,2.5,2.5,77,0.00,,,0.08,VWS V14.01,2013-08-28 17:59:00,
2013-08-28 11:01:00,71.2,63.7,29.74,NNW,338,0.0,2.5,77,0.00,,,0.08,VWS V14.01,2013-08-28 18:01:00,
2013-08-28 11:02:00,71.2,63.7,29.74,NNW,338,0.0,2.5,77,0.00,,,0.08,VWS V14.01,2013-08-28 18:02:00,
2013-08-28 11:03:00,71.4,63.5,29.71,WNW,292,0.0,2.5,76,0.00,,,0.08,VWS V14.01,2013-08-28 18:03:00,
2013-08-28 11:04:00,71.4,63.5,29.71,WNW,292,0.0,2.5,76,0.00,,,0.08,VWS V14.01,2013-08-28 18:04:00,
2013-08-28 11:07:00,71.4,63.5,29.71,East,90,2.9,5.6,76,0.00,,,0.08,VWS V14.01,2013-08-28 18:07:00,
2013-08-28 11:08:00,71.4,63.5,29.71,East,90,2.5,5.6,76,0.00,,,0.08,VWS V14.01,2013-08-28 18:08:00,
2013-08-28 11:09:00,71.4,63.5,29.71,East,90,2.9,5.6,76,0.00,,,0.08,VWS V14.01,2013-08-28 18:09:00,
2013-08-28 11:12:00,71.4,63.1,29.71,NNE,22,0.0,5.6,75,0.00,,,0.08,VWS V14.01,2013-08-28 18:12:00,
2013-08-28 11:13:00,71.4,63.1,29.71,ENE,68,0.0,5.6,75,0.00,,,0.08,VWS V14.01,2013-08-28 18:13:00,
2013-08-28 11:14:00,71.6,63.3,29.71,WNW,292,2.7,5.6,75,0.00,,,0.08,VWS V14.01,2013-08-28 18:14:00,
2013-08-28 11:17:00,72.0,63.2,29.71,NNE,22,0.9,5.6,74,0.00,,,0.08,VWS V14.01,2013-08-28 18:17:00,
2013-08-28 11:18:00,72.0,63.2,29.71,NNE,22,0.9,5.6,74,0.00,,,0.08,VWS V14.01,2013-08-28 18:18:00,
2013-08-28 11:19:00,72.0,63.2,29.71,ENE,68,2.7,5.6,74,0.00,,,0.08,VWS V14.01,2013-08-28 18:19:00,
2013-08-28 11:23:00,71.8,62.7,29.71,SE,135,0.0,6.0,73,0.00,,,0.08,VWS V14.01,2013-08-28 18:23:00,
2013-08-28 11:24:00,71.8,63.1,29.71,NE,45,0.0,6.0,74,0.00,,,0.08,VWS V14.01,2013-08-28 18:24:00,
2013-08-28 11:28:00,71.8,62.7,29.71,ENE,68,1.1,6.0,73,0.00,,,0.08,VWS V14.01,2013-08-28 18:28:00,
2013-08-28 11:29:00,71.8,62.7,29.71,ENE,68,1.6,6.0,73,0.00,,,0.08,VWS V14.01,2013-08-28 18:29:00,
2013-08-28 11:33:00,72.1,63.0,29.74,East,90,2.5,6.0,73,0.00,,,0.08,VWS V14.01,2013-08-28 18:33:00,
2013-08-28 11:34:00,72.1,63.0,29.74,WSW,248,0.0,6.0,73,0.00,,,0.08,VWS V14.01,2013-08-28 18:34:00,
2013-08-28 11:38:00,72.7,62.7,29.74,ENE,68,2.0,3.6,71,0.00,,,0.08,VWS V14.01,2013-08-28 18:38:00,
2013-08-28 11:39:00,72.7,62.7,29.74,South,180,0.0,3.6,71,0.00,,,0.08,VWS V14.01,2013-08-28 18:39:00,
2013-08-28 11:43:00,72.7,63.1,29.74,SE,135,0.0,3.6,72,0.00,,,0.08,VWS V14.01,2013-08-28 18:43:00,
2013-08-28 11:44:00,72.7,63.1,29.74,West,270,0.0,3.6,72,0.00,,,0.08,VWS V14.01,2013-08-28 18:44:00,
2013-08-28 11:48:00,73.2,63.7,29.74,SW,225,0.0,2.9,72,0.00,,,0.08,VWS V14.01,2013-08-28 18:48:00,
2013-08-28 11:49:00,73.2,63.3,29.74,NNW,338,0.0,2.5,71,0.00,,,0.08,VWS V14.01,2013-08-28 18:49:00,
2013-08-28 11:50:00,73.2,63.3,29.74,NE,45,2.7,2.7,71,0.00,,,0.08,VWS V14.01,2013-08-28 18:50:00,
2013-08-28 11:53:00,73.2,63.3,29.74,East,90,0.0,2.7,71,0.00,,,0.08,VWS V14.01,2013-08-28 18:53:00,
2013-08-28 11:54:00,73.0,62.7,29.74,ENE,68,3.6,3.6,70,0.00,,,0.08,VWS V14.01,2013-08-28 18:54:00,
2013-08-28 11:55:00,73.0,62.7,29.74,ENE,68,3.6,3.6,70,0.00,,,0.08,VWS V14.01,2013-08-28 18:55:00,
2013-08-28 11:58:00,73.0,62.7,29.74,SE,135,4.3,4.3,70,0.00,,,0.08,VWS V14.01,2013-08-28 18:58:00,
2013-08-28 11:59:00,73.0,62.7,29.74,SE,135,4.3,4.3,70,0.00,,,0.08,VWS V14.01,2013-08-28 18:59:00,
2013-08-28 12:00:00,73.0,62.7,29.74,NNW,338,0.0,4.3,70,0.00,,,0.08,VWS V14.01,2013-08-28 19:00:00,
2013-08-28 12:03:00,73.2,62.9,29.74,WNW,292,0.0,4.3,70,0.00,,,0.08,VWS V14.01,2013-08-28 19:03:00,
2013-08-28 12:04:00,73.4,62.6,29.74,East,90,0.0,4.3,69,0.00,,,0.08,VWS V14.01,2013-08-28 19:04:00,
2013-08-28 12:05:00,73.4,62.6,29.74,East,90,0.0,4.3,69,0.00,,,0.08,VWS V14.01,2013-08-28 19:05:00,
2013-08-28 12:08:00,73.2,62.5,29.74,NNW,338,0.0,4.3,69,0.00,,,0.08,VWS V14.01,2013-08-28 19:08:00,
2013-08-28 12:10:00,73.2,62.5,29.74,NNE,22,0.0,4.3,69,0.00,,,0.08,VWS V14.01,2013-08-28 19:10:00,
2013-08-28 12:13:00,73.2,62.5,29.74,NNE,22,3.8,4.3,69,0.00,,,0.08,VWS V14.01,2013-08-28 19:13:00,
2013-08-28 12:15:00,73.2,62.5,29.74,NNW,338,1.6,4.3,69,0.00,,,0.08,VWS V14.01,2013-08-28 19:15:00,
2013-08-28 12:18:00,73.2,62.0,29.71,NW,315,0.0,3.8,68,0.00,,,0.08,VWS V14.01,2013-08-28 19:18:00,
2013-08-28 12:20:00,73.4,62.2,29.71,NNW,338,0.0,3.8,68,0.00,,,0.08,VWS V14.01,2013-08-28 19:20:00,
2013-08-28 12:23:00,73.6,62.4,29.71,NNW,338,0.0,3.8,68,0.00,,,0.08,VWS V14.01,2013-08-28 19:23:00,
2013-08-28 12:25:00,73.8,62.5,29.71,ENE,68,0.0,3.8,68,0.00,,,0.08,VWS V14.01,2013-08-28 19:25:00,
2013-08-28 12:28:00,74.3,63.1,29.71,ENE,68,0.0,3.8,68,0.00,,,0.08,VWS V14.01,2013-08-28 19:28:00,
2013-08-28 12:30:00,74.3,63.1,29.71,SE,135,0.0,3.8,68,0.00,,,0.08,VWS V14.01,2013-08-28 19:30:00,
2013-08-28 12:31:00,74.3,62.6,29.71,East,90,0.0,3.1,67,0.00,,,0.08,VWS V14.01,2013-08-28 19:31:00,
2013-08-28 12:33:00,74.3,62.6,29.71,NNW,338,0.0,3.1,67,0.00,,,0.08,VWS V14.01,2013-08-28 19:33:00,
2013-08-28 12:35:00,74.3,62.6,29.71,NE,45,2.5,3.1,67,0.00,,,0.08,VWS V14.01,2013-08-28 19:35:00,
2013-08-28 12:36:00,74.5,62.8,29.71,NE,45,0.0,3.1,67,0.00,,,0.08,VWS V14.01,2013-08-28 19:36:00,
2013-08-28 12:38:00,74.5,62.4,29.71,East,90,6.0,6.0,66,0.00,,,0.08,VWS V14.01,2013-08-28 19:38:00,
2013-08-28 12:39:00,74.5,62.4,29.71,East,90,6.0,6.0,66,0.00,,,0.08,VWS V14.01,2013-08-28 19:39:00,
2013-08-28 12:40:00,74.3,62.2,29.71,East,90,2.5,6.0,66,0.00,,,0.08,VWS V14.01,2013-08-28 19:40:00,
2013-08-28 12:41:00,74.3,62.2,29.71,SE,135,3.6,6.0,66,0.00,,,0.08,VWS V14.01,2013-08-28 19:41:00,
2013-08-28 12:43:00,74.5,62.0,29.71,ENE,68,1.3,6.0,65,0.00,,,0.08,VWS V14.01,2013-08-28 19:43:00,
2013-08-28 12:45:00,74.5,62.0,29.71,West,270,1.6,6.0,65,0.00,,,0.08,VWS V14.01,2013-08-28 19:45:00,
2013-08-28 12:46:00,74.5,62.0,29.71,ENE,68,1.3,6.0,65,0.00,,,0.08,VWS V14.01,2013-08-28 19:46:00,
2013-08-28 12:48:00,74.8,62.7,29.71,NNE,22,3.4,6.0,66,0.00,,,0.08,VWS V14.01,2013-08-28 19:48:00,
2013-08-28 12:49:00,74.8,62.7,29.71,ENE,68,0.0,6.0,66,0.00,,,0.08,VWS V14.01,2013-08-28 19:49:00,
2013-08-28 12:50:00,74.8,62.7,29.71,ESE,112,1.1,6.0,66,0.00,,,0.08,VWS V14.01,2013-08-28 19:50:00,
2013-08-28 12:51:00,74.8,62.7,29.71,NE,45,0.0,6.0,66,0.00,,,0.08,VWS V14.01,2013-08-28 19:51:00,
2013-08-28 12:53:00,74.8,62.7,29.71,East,90,2.7,6.0,66,0.00,,,0.08,VWS V14.01,2013-08-28 19:53:00,
2013-08-28 12:54:00,75.0,62.9,29.71,East,90,2.7,6.0,66,0.00,,,0.08,VWS V14.01,2013-08-28 19:54:00,
2013-08-28 12:55:00,75.0,62.9,29.71,WNW,292,0.0,6.0,66,0.00,,,0.08,VWS V14.01,2013-08-28 19:55:00,
2013-08-28 12:56:00,74.8,62.7,29.71,WNW,292,0.0,3.6,66,0.00,,,0.08,VWS V14.01,2013-08-28 19:56:00,
2013-08-28 12:58:00,74.8,62.7,29.71,WSW,248,2.7,3.6,66,0.00,,,0.08,VWS V14.01,2013-08-28 19:58:00,
2013-08-28 12:59:00,74.8,62.7,29.71,ENE,68,3.1,3.6,66,0.00,,,0.08,VWS V14.01,2013-08-28 19:59:00,
2013-08-28 13:00:00,74.8,62.7,29.71,WSW,248,2.2,3.4,66,0.00,,,0.08,VWS V14.01,2013-08-28 20:00:00,
2013-08-28 13:01:00,74.8,62.7,29.71,NE,45,2.9,3.4,66,0.00,,,0.08,VWS V14.01,2013-08-28 20:01:00,
2013-08-28 13:03:00,75.0,62.9,29.71,East,90,2.7,3.4,66,0.00,,,0.08,VWS V14.01,2013-08-28 20:03:00,
2013-08-28 13:04:00,75.0,62.9,29.71,NNW,338,3.1,3.4,66,0.00,,,0.08,VWS V14.01,2013-08-28 20:04:00,
2013-08-28 13:05:00,75.0,62.9,29.71,WNW,292,0.9,3.4,66,0.00,,,0.08,VWS V14.01,2013-08-28 20:05:00,
2013-08-28 13:06:00,74.8,62.3,29.71,WNW,292,0.9,3.1,65,0.00,,,0.08,VWS V14.01,2013-08-28 20:06:00,
2013-08-28 13:07:00,74.8,62.3,29.71,ENE,68,1.3,3.1,65,0.00,,,0.08,VWS V14.01,2013-08-28 20:07:00,
2013-08-28 13:08:00,74.8,62.7,29.71,NNW,338,1.3,3.1,66,0.00,,,0.08,VWS V14.01,2013-08-28 20:08:00,
2013-08-28 13:09:00,74.8,62.7,29.71,WSW,248,0.0,3.1,66,0.00,,,0.08,VWS V14.01,2013-08-28 20:09:00,
2013-08-28 13:10:00,74.8,62.7,29.71,WSW,248,0.0,3.1,66,0.00,,,0.08,VWS V14.01,2013-08-28 20:10:00,
2013-08-28 13:12:00,75.0,62.5,29.71,NE,45,2.2,3.1,65,0.00,,,0.08,VWS V14.01,2013-08-28 20:12:00,
2013-08-28 13:14:00,74.8,62.3,29.71,East,90,1.3,3.1,65,0.00,,,0.08,VWS V14.01,2013-08-28 20:14:00,
2013-08-28 13:16:00,75.0,62.5,29.71,ENE,68,3.1,3.1,65,0.00,,,0.08,VWS V14.01,2013-08-28 20:16:00,
2013-08-28 13:17:00,74.8,62.3,29.71,ENE,68,3.6,3.6,65,0.00,,,0.08,VWS V14.01,2013-08-28 20:17:00,
2013-08-28 13:19:00,74.8,61.9,29.71,ENE,68,0.0,3.6,64,0.00,,,0.08,VWS V14.01,2013-08-28 20:19:00,
2013-08-28 13:21:00,74.8,61.9,29.71,ENE,68,0.0,3.6,64,0.00,,,0.08,VWS V14.01,2013-08-28 20:21:00,
2013-08-28 13:22:00,74.8,61.9,29.71,ENE,68,0.0,3.6,64,0.00,,,0.08,VWS V14.01,2013-08-28 20:22:00,
2013-08-28 13:24:00,74.8,61.9,29.71,ENE,68,2.0,3.6,64,0.00,,,0.08,VWS V14.01,2013-08-28 20:24:00,
2013-08-28 13:26:00,75.0,62.0,29.71,SE,135,3.4,3.6,64,0.00,,,0.08,VWS V14.01,2013-08-28 20:26:00,
2013-08-28 13:27:00,75.0,62.0,29.71,ESE,112,0.0,3.6,64,0.00,,,0.08,VWS V14.01,2013-08-28 20:27:00,
2013-08-28 13:28:00,75.0,62.0,29.71,NW,315,2.0,3.6,64,0.00,,,0.08,VWS V14.01,2013-08-28 20:28:00,
2013-08-28 13:29:00,75.0,62.0,29.71,NNW,338,0.0,3.6,64,0.00,,,0.08,VWS V14.01,2013-08-28 20:29:00,
2013-08-28 13:31:00,75.0,62.0,29.71,ENE,68,0.0,3.6,64,0.00,,,0.08,VWS V14.01,2013-08-28 20:31:00,
2013-08-28 13:32:00,75.0,61.6,29.71,NE,45,2.0,3.6,63,0.00,,,0.08,VWS V14.01,2013-08-28 20:32:00,
2013-08-28 13:33:00,75.0,61.6,29.71,North,0,1.6,3.6,63,0.00,,,0.08,VWS V14.01,2013-08-28 20:33:00,
2013-08-28 13:34:00,75.0,61.6,29.71,North,0,1.6,3.6,63,0.00,,,0.08,VWS V14.01,2013-08-28 20:34:00,
2013-08-28 13:36:00,75.0,61.6,29.71,ESE,112,0.0,3.4,63,0.00,,,0.08,VWS V14.01,2013-08-28 20:36:00,
2013-08-28 13:37:00,75.7,62.3,29.71,East,90,4.0,4.0,63,0.00,,,0.08,VWS V14.01,2013-08-28 20:37:00,
2013-08-28 13:38:00,75.6,61.6,29.71,East,90,2.0,4.0,62,0.00,,,0.08,VWS V14.01,2013-08-28 20:38:00,
2013-08-28 13:39:00,75.6,61.6,29.71,East,90,2.0,4.0,62,0.00,,,0.08,VWS V14.01,2013-08-28 20:39:00,
2013-08-28 13:41:00,75.2,61.3,29.71,ENE,68,1.1,4.0,62,0.00,,,0.08,VWS V14.01,2013-08-28 20:41:00,
2013-08-28 13:42:00,75.4,61.5,29.71,NNW,338,2.0,4.0,62,0.00,,,0.08,VWS V14.01,2013-08-28 20:42:00,
2013-08-28 13:43:00,75.4,61.5,29.71,East,90,1.3,4.0,62,0.00,,,0.08,VWS V14.01,2013-08-28 20:43:00,
2013-08-28 13:44:00,75.4,61.5,29.71,NNE,22,0.0,4.0,62,0.00,,,0.08,VWS V14.01,2013-08-28 20:44:00,
2013-08-28 13:46:00,75.2,61.3,29.71,North,0,0.0,4.0,62,0.00,,,0.08,VWS V14.01,2013-08-28 20:46:00,
2013-08-28 13:47:00,75.2,61.3,29.71,ENE,68,1.6,4.0,62,0.00,,,0.08,VWS V14.01,2013-08-28 20:47:00,
2013-08-28 13:48:00,75.2,61.3,29.71,NNE,22,0.0,4.0,62,0.00,,,0.08,VWS V14.01,2013-08-28 20:48:00,
2013-08-28 13:49:00,75.6,61.6,29.71,ENE,68,0.0,4.0,62,0.00,,,0.08,VWS V14.01,2013-08-28 20:49:00,
2013-08-28 13:51:00,75.7,62.3,29.71,NNW,338,0.0,4.0,63,0.00,,,0.08,VWS V14.01,2013-08-28 20:51:00,
2013-08-28 13:52:00,75.9,62.4,29.71,ENE,68,1.6,4.0,63,0.00,,,0.08,VWS V14.01,2013-08-28 20:52:00,
2013-08-28 13:53:00,75.9,62.4,29.71,ENE,68,1.6,4.0,63,0.00,,,0.08,VWS V14.01,2013-08-28 20:53:00,
2013-08-28 13:54:00,75.9,62.4,29.71,NNW,338,0.0,2.0,63,0.00,,,0.08,VWS V14.01,2013-08-28 20:54:00,
2013-08-28 13:56:00,76.1,62.6,29.71,NNW,338,0.0,2.0,63,0.00,,,0.08,VWS V14.01,2013-08-28 20:56:00,
2013-08-28 13:57:00,76.1,62.6,29.71,NNW,338,0.0,2.0,63,0.00,,,0.08,VWS V14.01,2013-08-28 20:57:00,
2013-08-28 13:58:00,76.3,62.8,29.71,NNW,338,0.0,1.6,63,0.00,,,0.08,VWS V14.01,2013-08-28 20:58:00,
2013-08-28 13:59:00,76.3,62.8,29.71,NNW,338,0.0,1.6,63,0.00,,,0.08,VWS V14.01,2013-08-28 20:59:00,
2013-08-28 14:01:00,76.3,62.8,29.71,NNW,338,0.0,1.6,63,0.00,,,0.08,VWS V14.01,2013-08-28 21:01:00,
2013-08-28 14:02:00,76.5,62.9,29.71,NNW,338,0.0,1.6,63,0.00,,,0.08,VWS V14.01,2013-08-28 21:02:00,
2013-08-28 14:03:00,76.6,63.6,29.71,NNW,338,0.0,1.6,64,0.00,,,0.08,VWS V14.01,2013-08-28 21:03:00,
2013-08-28 14:04:00,76.6,63.6,29.71,NNW,338,0.0,1.6,64,0.00,,,0.08,VWS V14.01,2013-08-28 21:04:00,
2013-08-28 14:06:00,76.6,63.6,29.71,East,90,3.1,3.1,64,0.00,,,0.08,VWS V14.01,2013-08-28 21:06:00,
2013-08-28 14:07:00,76.6,63.6,29.71,NE,45,2.0,3.1,64,0.00,,,0.08,VWS V14.01,2013-08-28 21:07:00,
2013-08-28 14:08:00,76.6,63.6,29.71,NE,45,2.0,3.1,64,0.00,,,0.08,VWS V14.01,2013-08-28 21:08:00,
2013-08-28 14:09:00,76.8,63.7,29.71,NW,315,0.0,3.1,64,0.00,,,0.08,VWS V14.01,2013-08-28 21:09:00,
2013-08-28 14:11:00,76.8,63.7,29.71,NW,315,0.0,3.1,64,0.00,,,0.08,VWS V14.01,2013-08-28 21:11:00,
2013-08-28 14:13:00,76.8,63.7,29.71,NW,315,0.0,3.1,64,0.00,,,0.08,VWS V14.01,2013-08-28 21:13:00,
2013-08-28 14:14:00,77.0,63.5,29.71,ENE,68,0.0,3.1,63,0.00,,,0.08,VWS V14.01,2013-08-28 21:14:00,
2013-08-28 14:16:00,77.0,63.5,29.71,WNW,292,0.0,3.1,63,0.00,,,0.08,VWS V14.01,2013-08-28 21:16:00,
2013-08-28 14:18:00,76.8,63.3,29.71,NNW,338,0.0,3.1,63,0.00,,,0.08,VWS V14.01,2013-08-28 21:18:00,
2013-08-28 14:19:00,76.8,63.7,29.71,NNW,338,0.0,3.1,64,0.00,,,0.08,VWS V14.01,2013-08-28 21:19:00,
2013-08-28 14:21:00,76.8,63.7,29.71,NNW,338,0.0,3.1,64,0.00,,,0.08,VWS V14.01,2013-08-28 21:21:00,
2013-08-28 14:23:00,76.8,63.7,29.71,NNW,338,0.0,3.1,64,0.00,,,0.08,VWS V14.01,2013-08-28 21:23:00,
2013-08-28 14:24:00,76.8,63.7,29.71,NNW,338,0.0,2.0,64,0.00,,,0.08,VWS V14.01,2013-08-28 21:24:00,
2013-08-28 14:26:00,76.6,63.6,29.71,NNW,338,0.0,0.0,64,0.00,,,0.08,VWS V14.01,2013-08-28 21:26:00,
2013-08-28 14:29:00,76.8,63.7,29.71,East,90,0.0,0.0,64,0.00,,,0.08,VWS V14.01,2013-08-28 21:29:00,
2013-08-28 14:31:00,76.8,63.3,29.71,NNW,338,0.0,0.0,63,0.00,,,0.08,VWS V14.01,2013-08-28 21:31:00,
2013-08-28 14:34:00,77.2,64.1,29.68,NNW,338,0.0,0.0,64,0.00,,,0.08,VWS V14.01,2013-08-28 21:34:00,
2013-08-28 14:35:00,77.2,64.1,29.68,NNW,338,0.0,0.0,64,0.00,,,0.08,VWS V14.01,2013-08-28 21:35:00,
2013-08-28 14:36:00,77.2,64.1,29.68,NNW,338,0.0,0.0,64,0.00,,,0.08,VWS V14.01,2013-08-28 21:36:00,
2013-08-28 14:39:00,77.2,63.6,29.68,SSE,158,0.0,0.9,63,0.00,,,0.08,VWS V14.01,2013-08-28 21:39:00,
2013-08-28 14:40:00,77.2,63.6,29.68,NNW,338,0.9,0.9,63,0.00,,,0.08,VWS V14.01,2013-08-28 21:40:00,
2013-08-28 14:41:00,77.2,63.6,29.68,NW,315,0.0,0.9,63,0.00,,,0.08,VWS V14.01,2013-08-28 21:41:00,
2013-08-28 14:44:00,77.0,63.5,29.68,NW,315,0.0,0.9,63,0.00,,,0.08,VWS V14.01,2013-08-28 21:44:00,
2013-08-28 14:45:00,77.0,63.5,29.68,NW,315,0.0,0.9,63,0.00,,,0.08,VWS V14.01,2013-08-28 21:45:00,
2013-08-28 14:46:00,77.0,63.5,29.68,NW,315,0.0,0.9,63,0.00,,,0.08,VWS V14.01,2013-08-28 21:46:00,
2013-08-28 14:49:00,77.0,63.5,29.71,NW,315,0.0,0.9,63,0.00,,,0.08,VWS V14.01,2013-08-28 21:49:00,
2013-08-28 14:50:00,77.0,63.5,29.71,NW,315,0.0,0.9,63,0.00,,,0.08,VWS V14.01,2013-08-28 21:50:00,
2013-08-28 14:51:00,77.0,63.9,29.71,NW,315,0.0,0.9,64,0.00,,,0.08,VWS V14.01,2013-08-28 21:51:00,
2013-08-28 14:54:00,77.2,64.1,29.71,WNW,292,0.0,1.1,64,0.00,,,0.08,VWS V14.01,2013-08-28 21:54:00,
2013-08-28 14:55:00,77.2,64.1,29.71,WNW,292,0.0,1.1,64,0.00,,,0.08,VWS V14.01,2013-08-28 21:55:00,
2013-08-28 14:56:00,77.4,64.2,29.71,NE,45,0.0,1.1,64,0.00,,,0.08,VWS V14.01,2013-08-28 21:56:00,
2013-08-28 14:59:00,77.4,63.8,29.71,WNW,292,0.0,1.1,63,0.00,,,0.08,VWS V14.01,2013-08-28 21:59:00,
2013-08-28 15:00:00,77.4,63.8,29.71,WNW,292,0.0,1.1,63,0.00,,,0.08,VWS V14.01,2013-08-28 22:00:00,
2013-08-28 15:01:00,77.4,63.8,29.71,WNW,292,0.0,1.1,63,0.00,,,0.08,VWS V14.01,2013-08-28 22:01:00,
2013-08-28 15:04:00,77.5,64.0,29.71,WNW,292,0.0,1.1,63,0.00,,,0.08,VWS V14.01,2013-08-28 22:04:00,
2013-08-28 15:05:00,77.5,64.0,29.71,WNW,292,0.0,1.1,63,0.00,,,0.08,VWS V14.01,2013-08-28 22:05:00,
2013-08-28 15:06:00,77.5,64.0,29.71,WNW,292,0.0,1.1,63,0.00,,,0.08,VWS V14.01,2013-08-28 22:06:00,
2013-08-28 15:09:00,77.5,64.0,29.68,WSW,248,2.0,2.2,63,0.00,,,0.08,VWS V14.01,2013-08-28 22:09:00,
2013-08-28 15:10:00,77.5,64.0,29.68,West,270,0.9,2.2,63,0.00,,,0.08,VWS V14.01,2013-08-28 22:10:00,
2013-08-28 15:11:00,77.5,64.0,29.68,NW,315,2.0,2.2,63,0.00,,,0.08,VWS V14.01,2013-08-28 22:11:00,
2013-08-28 15:14:00,77.5,64.0,29.68,NE,45,0.0,2.2,63,0.00,,,0.08,VWS V14.01,2013-08-28 22:14:00,
2013-08-28 15:15:00,77.5,64.0,29.68,NE,45,0.0,2.2,63,0.00,,,0.08,VWS V14.01,2013-08-28 22:15:00,
2013-08-28 15:16:00,77.5,64.0,29.68,NNE,22,0.0,2.2,63,0.00,,,0.08,VWS V14.01,2013-08-28 22:16:00,
2013-08-28 15:17:00,77.4,63.8,29.68,NNW,338,0.0,2.2,63,0.00,,,0.08,VWS V14.01,2013-08-28 22:17:00,
2013-08-28 15:19:00,77.4,63.8,29.68,WNW,292,0.0,2.2,63,0.00,,,0.08,VWS V14.01,2013-08-28 22:19:00,
2013-08-28 15:20:00,77.4,63.8,29.68,WSW,248,0.0,2.2,63,0.00,,,0.08,VWS V14.01,2013-08-28 22:20:00,
2013-08-28 15:21:00,77.4,63.8,29.68,WNW,292,0.0,2.2,63,0.00,,,0.08,VWS V14.01,2013-08-28 22:21:00,
2013-08-28 15:22:00,77.4,63.8,29.68,West,270,0.0,2.2,63,0.00,,,0.08,VWS V14.01,2013-08-28 22:22:00,
2013-08-28 15:24:00,77.4,63.8,29.68,NNE,22,0.0,2.2,63,0.00,,,0.08,VWS V14.01,2013-08-28 22:24:00,
2013-08-28 15:25:00,77.4,63.8,29.68,NNE,22,0.0,2.0,63,0.00,,,0.08,VWS V14.01,2013-08-28 22:25:00,
2013-08-28 15:26:00,77.4,63.8,29.68,SSW,202,0.0,2.0,63,0.00,,,0.08,VWS V14.01,2013-08-28 22:26:00,
2013-08-28 15:27:00,77.4,63.8,29.68,WNW,292,1.1,2.0,63,0.00,,,0.08,VWS V14.01,2013-08-28 22:27:00,
2013-08-28 15:29:00,77.4,63.8,29.68,East,90,2.0,2.0,63,0.00,,,0.08,VWS V14.01,2013-08-28 22:29:00,
2013-08-28 15:30:00,77.4,63.8,29.68,NE,45,0.0,2.0,63,0.00,,,0.08,VWS V14.01,2013-08-28 22:30:00,
2013-08-28 15:31:00,77.5,64.0,29.68,NE,45,0.0,2.0,63,0.00,,,0.08,VWS V14.01,2013-08-28 22:31:00,
2013-08-28 15:32:00,77.5,64.0,29.68,WNW,292,0.0,2.0,63,0.00,,,0.08,VWS V14.01,2013-08-28 22:32:00,
2013-08-28 15:33:00,77.5,64.0,29.68,WNW,292,0.0,2.0,63,0.00,,,0.08,VWS V14.01,2013-08-28 22:33:00,
2013-08-28 15:34:00,77.5,64.0,29.68,NNW,338,0.0,2.0,63,0.00,,,0.08,VWS V14.01,2013-08-28 22:34:00,
2013-08-28 15:35:00,77.5,64.0,29.68,NNW,338,0.0,2.0,63,0.00,,,0.08,VWS V14.01,2013-08-28 22:35:00,
2013-08-28 15:36:00,77.5,64.0,29.68,WNW,292,0.0,2.0,63,0.00,,,0.08,VWS V14.01,2013-08-28 22:36:00,
2013-08-28 15:37:00,77.5,64.0,29.68,NNW,338,0.9,2.0,63,0.00,,,0.08,VWS V14.01,2013-08-28 22:37:00,
2013-08-28 15:38:00,77.5,64.0,29.68,ESE,112,0.0,2.0,63,0.00,,,0.08,VWS V14.01,2013-08-28 22:38:00,
2013-08-28 15:39:00,77.5,64.0,29.68,West,270,4.3,4.3,63,0.00,,,0.08,VWS V14.01,2013-08-28 22:39:00,
2013-08-28 15:40:00,77.5,64.0,29.68,WNW,292,1.1,4.3,63,0.00,,,0.08,VWS V14.01,2013-08-28 22:40:00,
2013-08-28 15:41:00,77.5,64.0,29.68,West,270,1.3,4.3,63,0.00,,,0.08,VWS V14.01,2013-08-28 22:41:00,
2013-08-28 15:42:00,77.4,63.3,29.68,WNW,292,0.0,4.3,62,0.00,,,0.08,VWS V14.01,2013-08-28 22:42:00,
2013-08-28 15:43:00,77.4,63.3,29.68,WNW,292,0.0,4.3,62,0.00,,,0.08,VWS V14.01,2013-08-28 22:43:00,
2013-08-28 15:44:00,77.4,63.3,29.68,WNW,292,0.9,4.3,62,0.00,,,0.08,VWS V14.01,2013-08-28 22:44:00,
2013-08-28 15:45:00,77.4,63.3,29.68,WNW,292,0.9,4.3,62,0.00,,,0.08,VWS V14.01,2013-08-28 22:45:00,
2013-08-28 15:46:00,77.4,63.3,29.68,WNW,292,0.0,4.3,62,0.00,,,0.08,VWS V14.01,2013-08-28 22:46:00,
2013-08-28 15:48:00,77.4,63.8,29.68,WNW,292,0.0,4.3,63,0.00,,,0.08,VWS V14.01,2013-08-28 22:48:00,
2013-08-28 15:49:00,77.4,63.8,29.68,West,270,1.1,4.3,63,0.00,,,0.08,VWS V14.01,2013-08-28 22:49:00,
2013-08-28 15:50:00,77.4,63.8,29.68,SSW,202,0.0,4.3,63,0.00,,,0.08,VWS V14.01,2013-08-28 22:50:00,
2013-08-28 15:51:00,77.4,63.8,29.68,West,270,1.3,4.3,63,0.00,,,0.08,VWS V14.01,2013-08-28 22:51:00,
2013-08-28 15:53:00,77.4,63.3,29.68,West,270,1.3,4.3,62,0.00,,,0.08,VWS V14.01,2013-08-28 22:53:00,
2013-08-28 15:55:00,77.4,63.3,29.68,West,270,0.0,4.3,62,0.00,,,0.08,VWS V14.01,2013-08-28 22:55:00,
2013-08-28 15:56:00,77.4,63.3,29.68,ENE,68,0.0,4.3,62,0.00,,,0.08,VWS V14.01,2013-08-28 22:56:00,
2013-08-28 15:58:00,77.4,63.3,29.68,WSW,248,2.7,2.7,62,0.00,,,0.08,VWS V14.01,2013-08-28 22:58:00,
2013-08-28 16:00:00,77.2,63.2,29.68,WNW,292,0.0,2.7,62,0.00,,,0.08,VWS V14.01,2013-08-28 23:00:00,
2013-08-28 16:01:00,77.2,63.2,29.68,WSW,248,0.9,2.7,62,0.00,,,0.08,VWS V14.01,2013-08-28 23:01:00,
2013-08-28 16:03:00,77.4,63.3,29.68,West,270,0.0,2.7,62,0.00,,,0.08,VWS V14.01,2013-08-28 23:03:00,
2013-08-28 16:05:00,77.4,63.8,29.68,WNW,292,0.0,2.7,63,0.00,,,0.08,VWS V14.01,2013-08-28 23:05:00,
2013-08-28 16:06:00,77.4,63.8,29.68,NW,315,0.0,2.7,63,0.00,,,0.08,VWS V14.01,2013-08-28 23:06:00,
2013-08-28 16:09:00,77.4,63.8,29.68,WNW,292,0.0,2.7,63,0.00,,,0.08,VWS V14.01,2013-08-28 23:09:00,
2013-08-28 16:10:00,77.4,63.8,29.68,WNW,292,0.0,2.7,63,0.00,,,0.08,VWS V14.01,2013-08-28 23:10:00,
2013-08-28 16:11:00,77.4,63.8,29.68,WNW,292,0.0,2.7,63,0.00,,,0.08,VWS V14.01,2013-08-28 23:11:00,
2013-08-28 16:14:00,77.5,64.0,29.68,WNW,292,0.0,2.7,63,0.00,,,0.08,VWS V14.01,2013-08-28 23:14:00,
2013-08-28 16:15:00,77.5,64.0,29.68,WNW,292,0.0,2.7,63,0.00,,,0.08,VWS V14.01,2013-08-28 23:15:00,
2013-08-28 16:16:00,77.5,64.0,29.68,WNW,292,0.0,0.9,63,0.00,,,0.08,VWS V14.01,2013-08-28 23:16:00,
2013-08-28 16:19:00,77.7,64.6,29.68,WNW,292,0.0,0.9,64,0.00,,,0.08,VWS V14.01,2013-08-28 23:19:00,
2013-08-28 16:20:00,77.7,64.6,29.68,WNW,292,0.0,0.9,64,0.00,,,0.08,VWS V14.01,2013-08-28 23:20:00,
2013-08-28 16:21:00,77.9,64.8,29.68,WNW,292,0.0,0.9,64,0.00,,,0.08,VWS V14.01,2013-08-28 23:21:00,
2013-08-28 16:24:00,77.9,64.8,29.68,WNW,292,0.0,0.9,64,0.00,,,0.08,VWS V14.01,2013-08-28 23:24:00,
2013-08-28 16:25:00,77.9,64.8,29.68,WNW,292,0.0,0.0,64,0.00,,,0.08,VWS V14.01,2013-08-28 23:25:00,
2013-08-28 16:26:00,77.9,64.3,29.68,WNW,292,0.0,0.0,63,0.00,,,0.08,VWS V14.01,2013-08-28 23:26:00,
2013-08-28 16:29:00,77.9,64.3,29.68,WNW,292,0.0,0.0,63,0.00,,,0.08,VWS V14.01,2013-08-28 23:29:00,
2013-08-28 16:30:00,77.7,63.7,29.68,WNW,292,0.0,0.0,62,0.00,,,0.08,VWS V14.01,2013-08-28 23:30:00,
2013-08-28 16:31:00,77.9,63.8,29.68,WNW,292,0.0,0.0,62,0.00,,,0.08,VWS V14.01,2013-08-28 23:31:00,
2013-08-28 16:34:00,77.9,63.8,29.68,WNW,292,0.0,0.0,62,0.00,,,0.08,VWS V14.01,2013-08-28 23:34:00,
2013-08-28 16:35:00,77.9,63.8,29.68,WNW,292,0.0,0.0,62,0.00,,,0.08,VWS V14.01,2013-08-28 23:35:00,
2013-08-28 16:36:00,78.1,64.5,29.68,WNW,292,0.0,1.3,63,0.00,,,0.08,VWS V14.01,2013-08-28 23:36:00,
2013-08-28 16:37:00,78.1,64.5,29.68,WNW,292,0.0,1.3,63,0.00,,,0.08,VWS V14.01,2013-08-28 23:37:00,
2013-08-28 16:40:00,78.3,64.6,29.68,WNW,292,0.0,1.3,63,0.00,,,0.08,VWS V14.01,2013-08-28 23:40:00,
2013-08-28 16:41:00,78.3,64.6,29.68,WNW,292,0.0,1.3,63,0.00,,,0.08,VWS V14.01,2013-08-28 23:41:00,
2013-08-28 16:42:00,78.4,64.3,29.68,WNW,292,0.0,1.3,62,0.00,,,0.08,VWS V14.01,2013-08-28 23:42:00,
2013-08-28 16:45:00,78.4,64.3,29.68,WNW,292,0.0,1.3,62,0.00,,,0.08,VWS V14.01,2013-08-28 23:45:00,
2013-08-28 16:46:00,78.4,64.3,29.68,NW,315,0.0,1.3,62,0.00,,,0.08,VWS V14.01,2013-08-28 23:46:00,
2013-08-28 16:47:00,78.4,64.3,29.68,NW,315,0.0,1.3,62,0.00,,,0.08,VWS V14.01,2013-08-28 23:47:00,
2013-08-28 16:50:00,78.4,64.3,29.68,WNW,292,0.9,1.3,62,0.00,,,0.08,VWS V14.01,2013-08-28 23:50:00,
2013-08-28 16:51:00,78.4,64.3,29.68,WNW,292,0.0,1.3,62,0.00,,,0.08,VWS V14.01,2013-08-28 23:51:00,
2013-08-28 16:52:00,78.4,64.3,29.68,WNW,292,0.0,1.3,62,0.00,,,0.08,VWS V14.01,2013-08-28 23:52:00,
2013-08-28 16:55:00,78.3,64.2,29.68,NW,315,0.9,0.9,62,0.00,,,0.08,VWS V14.01,2013-08-28 23:55:00,
2013-08-28 16:56:00,78.3,64.2,29.68,WNW,292,0.9,0.9,62,0.00,,,0.08,VWS V14.01,2013-08-28 23:56:00,
2013-08-28 16:57:00,78.3,64.2,29.68,WNW,292,0.0,0.9,62,0.00,,,0.08,VWS V14.01,2013-08-28 23:57:00,
2013-08-28 17:00:00,78.1,64.0,29.68,NE,45,0.0,0.9,62,0.00,,,0.08,VWS V14.01,2013-08-29 00:00:00,
2013-08-28 17:01:00,78.1,64.0,29.68,NW,315,0.9,0.9,62,0.00,,,0.08,VWS V14.01,2013-08-29 00:01:00,
2013-08-28 17:02:00,78.1,64.0,29.68,WNW,292,0.9,0.9,62,0.00,,,0.08,VWS V14.01,2013-08-29 00:02:00,
2013-08-28 17:03:00,78.1,64.0,29.68,WNW,292,1.3,1.3,62,0.00,,,0.08,VWS V14.01,2013-08-29 00:03:00,
2013-08-28 17:05:00,77.7,63.7,29.68,WSW,248,0.0,1.3,62,0.00,,,0.08,VWS V14.01,2013-08-29 00:05:00,
2013-08-28 17:06:00,77.7,63.7,29.68,WSW,248,0.0,1.3,62,0.00,,,0.08,VWS V14.01,2013-08-29 00:06:00,
2013-08-28 17:07:00,77.7,63.2,29.68,NNW,338,0.0,1.3,61,0.00,,,0.08,VWS V14.01,2013-08-29 00:07:00,
2013-08-28 17:08:00,77.7,63.2,29.68,WNW,292,0.0,1.3,61,0.00,,,0.08,VWS V14.01,2013-08-29 00:08:00,
2013-08-28 17:10:00,77.7,63.2,29.68,West,270,0.0,1.3,61,0.00,,,0.08,VWS V14.01,2013-08-29 00:10:00,
2013-08-28 17:11:00,77.7,63.7,29.68,West,270,0.0,1.3,62,0.00,,,0.08,VWS V14.01,2013-08-29 00:11:00,
2013-08-28 17:12:00,77.7,63.7,29.68,West,270,0.0,1.3,62,0.00,,,0.08,VWS V14.01,2013-08-29 00:12:00,
2013-08-28 17:13:00,77.7,63.7,29.68,West,270,0.0,1.3,62,0.00,,,0.08,VWS V14.01,2013-08-29 00:13:00,
2013-08-28 17:15:00,77.7,63.7,29.68,WNW,292,0.0,1.3,62,0.00,,,0.08,VWS V14.01,2013-08-29 00:15:00,
2013-08-28 17:16:00,77.7,63.7,29.68,WNW,292,0.0,1.3,62,0.00,,,0.08,VWS V14.01,2013-08-29 00:16:00,
2013-08-28 17:17:00,77.7,63.7,29.68,WNW,292,0.0,1.3,62,0.00,,,0.08,VWS V14.01,2013-08-29 00:17:00,
2013-08-28 17:18:00,77.7,63.7,29.68,WNW,292,1.1,1.3,62,0.00,,,0.08,VWS V14.01,2013-08-29 00:18:00,
2013-08-28 17:20:00,77.5,63.0,29.68,WNW,292,1.1,1.1,61,0.00,,,0.08,VWS V14.01,2013-08-29 00:20:00,
2013-08-28 17:21:00,77.5,63.0,29.68,WNW,292,0.0,1.1,61,0.00,,,0.08,VWS V14.01,2013-08-29 00:21:00,
2013-08-28 17:22:00,77.5,63.0,29.68,WNW,292,1.1,1.1,61,0.00,,,0.08,VWS V14.01,2013-08-29 00:22:00,
2013-08-28 17:23:00,77.5,63.5,29.68,WNW,292,0.0,1.1,62,0.00,,,0.08,VWS V14.01,2013-08-29 00:23:00,
2013-08-28 17:25:00,77.4,63.3,29.68,WNW,292,0.9,1.1,62,0.00,,,0.08,VWS V14.01,2013-08-29 00:25:00,
2013-08-28 17:26:00,77.4,63.3,29.68,West,270,0.0,1.1,62,0.00,,,0.08,VWS V14.01,2013-08-29 00:26:00,
2013-08-28 17:27:00,77.4,63.3,29.68,West,270,0.0,1.1,62,0.00,,,0.08,VWS V14.01,2013-08-29 00:27:00,
2013-08-28 17:28:00,77.4,63.8,29.68,WNW,292,0.0,1.1,63,0.00,,,0.08,VWS V14.01,2013-08-29 00:28:00,
2013-08-28 17:30:00,77.4,63.8,29.68,NNW,338,0.0,1.1,63,0.00,,,0.08,VWS V14.01,2013-08-29 00:30:00,
2013-08-28 17:31:00,77.4,63.8,29.68,NW,315,0.0,1.1,63,0.00,,,0.08,VWS V14.01,2013-08-29 00:31:00,
2013-08-28 17:32:00,77.2,63.6,29.68,WSW,248,0.0,1.1,63,0.00,,,0.08,VWS V14.01,2013-08-29 00:32:00,
2013-08-28 17:33:00,77.2,63.6,29.68,WNW,292,1.1,1.1,63,0.00,,,0.08,VWS V14.01,2013-08-29 00:33:00,
2013-08-28 17:35:00,77.0,63.5,29.68,NW,315,0.0,1.1,63,0.00,,,0.08,VWS V14.01,2013-08-29 00:35:00,
2013-08-28 17:36:00,77.0,63.5,29.68,NNW,338,0.0,1.1,63,0.00,,,0.08,VWS V14.01,2013-08-29 00:36:00,
2013-08-28 17:37:00,77.0,63.5,29.68,NNW,338,0.0,1.1,63,0.00,,,0.08,VWS V14.01,2013-08-29 00:37:00,
2013-08-28 17:38:00,77.0,63.5,29.68,WNW,292,0.0,1.1,63,0.00,,,0.08,VWS V14.01,2013-08-29 00:38:00,
2013-08-28 17:40:00,76.8,63.7,29.68,North,0,0.0,1.1,64,0.00,,,0.08,VWS V14.01,2013-08-29 00:40:00,
2013-08-28 17:41:00,76.8,63.7,29.68,NW,315,0.0,1.1,64,0.00,,,0.08,VWS V14.01,2013-08-29 00:41:00,
2013-08-28 17:42:00,76.8,63.7,29.68,NW,315,0.0,1.1,64,0.00,,,0.08,VWS V14.01,2013-08-29 00:42:00,
2013-08-28 17:43:00,76.8,63.7,29.68,NW,315,0.0,1.1,64,0.00,,,0.08,VWS V14.01,2013-08-29 00:43:00,
2013-08-28 17:45:00,76.8,63.7,29.68,NW,315,0.0,1.1,64,0.00,,,0.08,VWS V14.01,2013-08-29 00:45:00,
2013-08-28 17:46:00,76.5,63.4,29.68,NW,315,0.0,1.1,64,0.00,,,0.08,VWS V14.01,2013-08-29 00:46:00,
2013-08-28 17:47:00,76.3,63.2,29.68,WNW,292,0.0,1.1,64,0.00,,,0.08,VWS V14.01,2013-08-29 00:47:00,
2013-08-28 17:48:00,76.3,63.2,29.68,NW,315,0.0,1.1,64,0.00,,,0.08,VWS V14.01,2013-08-29 00:48:00,
2013-08-28 17:49:00,76.3,63.2,29.68,NW,315,0.0,1.1,64,0.00,,,0.08,VWS V14.01,2013-08-29 00:49:00,
2013-08-28 17:50:00,76.3,63.2,29.68,WNW,292,0.0,0.0,64,0.00,,,0.08,VWS V14.01,2013-08-29 00:50:00,
2013-08-28 17:51:00,76.3,63.2,29.68,NW,315,0.0,0.0,64,0.00,,,0.08,VWS V14.01,2013-08-29 00:51:00,
2013-08-28 17:52:00,76.3,63.2,29.68,WNW,292,0.0,0.0,64,0.00,,,0.08,VWS V14.01,2013-08-29 00:52:00,
2013-08-28 17:54:00,76.3,63.2,29.68,NNW,338,1.3,1.3,64,0.00,,,0.08,VWS V14.01,2013-08-29 00:54:00,
2013-08-28 17:55:00,75.9,62.9,29.68,NNW,338,1.3,1.3,64,0.00,,,0.08,VWS V14.01,2013-08-29 00:55:00,
2013-08-28 17:56:00,75.9,62.9,29.68,NE,45,0.0,1.3,64,0.00,,,0.08,VWS V14.01,2013-08-29 00:56:00,
2013-08-28 17:57:00,75.9,62.9,29.68,NNW,338,0.0,1.3,64,0.00,,,0.08,VWS V14.01,2013-08-29 00:57:00,
2013-08-28 17:59:00,75.9,62.9,29.68,NNW,338,0.0,1.3,64,0.00,,,0.08,VWS V14.01,2013-08-29 00:59:00,
2013-08-28 18:00:00,75.9,62.9,29.68,NNW,338,0.0,1.3,64,0.00,,,0.08,VWS V14.01,2013-08-29 01:00:00,
2013-08-28 18:01:00,75.9,62.9,29.68,NNW,338,0.0,1.3,64,0.00,,,0.08,VWS V14.01,2013-08-29 01:01:00,
2013-08-28 18:02:00,75.9,62.9,29.68,NNW,338,0.0,1.3,64,0.00,,,0.08,VWS V14.01,2013-08-29 01:02:00,
2013-08-28 18:04:00,75.9,62.9,29.68,NW,315,0.0,1.3,64,0.00,,,0.08,VWS V14.01,2013-08-29 01:04:00,
2013-08-28 18:05:00,75.9,63.3,29.68,NW,315,0.0,1.3,65,0.00,,,0.08,VWS V14.01,2013-08-29 01:05:00,
2013-08-28 18:06:00,75.9,63.3,29.68,West,270,0.9,1.3,65,0.00,,,0.08,VWS V14.01,2013-08-29 01:06:00,
2013-08-28 18:07:00,75.9,63.3,29.68,WNW,292,0.0,1.3,65,0.00,,,0.08,VWS V14.01,2013-08-29 01:07:00,
2013-08-28 18:09:00,75.7,63.2,29.68,WNW,292,0.0,1.3,65,0.00,,,0.08,VWS V14.01,2013-08-29 01:09:00,
2013-08-28 18:10:00,75.6,63.0,29.68,WNW,292,0.0,1.3,65,0.00,,,0.00,VWS V14.01,2013-08-29 01:10:00,
2013-08-28 18:11:00,75.6,63.0,29.68,WSW,248,0.0,0.9,65,0.00,,,0.08,VWS V14.01,2013-08-29 01:11:00,
2013-08-28 18:12:00,75.4,62.8,29.68,NNE,22,3.1,3.1,65,0.00,,,0.08,VWS V14.01,2013-08-29 01:12:00,
2013-08-28 18:13:00,75.4,62.8,29.68,NNE,22,3.1,3.1,65,0.00,,,0.08,VWS V14.01,2013-08-29 01:13:00,
2013-08-28 18:14:00,75.4,62.8,29.68,WNW,292,2.2,3.1,65,0.00,,,0.08,VWS V14.01,2013-08-29 01:14:00,
2013-08-28 18:15:00,75.4,62.8,29.68,WNW,292,2.2,3.1,65,0.00,,,0.08,VWS V14.01,2013-08-29 01:15:00,
2013-08-28 18:16:00,75.0,62.5,29.68,WNW,292,2.2,3.1,65,0.00,,,0.08,VWS V14.01,2013-08-29 01:16:00,
2013-08-28 18:18:00,74.8,62.7,29.68,WSW,248,0.0,3.1,66,0.00,,,0.08,VWS V14.01,2013-08-29 01:18:00,
2013-08-28 18:20:00,74.8,62.7,29.71,East,90,1.1,3.1,66,0.00,,,0.08,VWS V14.01,2013-08-29 01:20:00,
2013-08-28 18:21:00,74.3,62.2,29.71,WSW,248,3.4,3.4,66,0.00,,,0.08,VWS V14.01,2013-08-29 01:21:00,
2013-08-28 18:23:00,73.9,61.4,29.71,WSW,248,0.0,3.4,65,0.00,,,0.08,VWS V14.01,2013-08-29 01:23:00,
2013-08-28 18:25:00,73.8,61.7,29.71,West,270,0.9,3.4,66,0.00,,,0.08,VWS V14.01,2013-08-29 01:25:00,
2013-08-28 18:26:00,73.8,61.7,29.71,West,270,1.6,3.4,66,0.00,,,0.08,VWS V14.01,2013-08-29 01:26:00,
2013-08-28 18:28:00,73.6,61.5,29.71,WNW,292,1.1,3.4,66,0.00,,,0.08,VWS V14.01,2013-08-29 01:28:00,
2013-08-28 18:30:00,73.4,61.4,29.71,SSW,202,0.0,3.4,66,0.00,,,0.08,VWS V14.01,2013-08-29 01:30:00,
2013-08-28 18:31:00,73.2,61.2,29.71,West,270,4.5,4.5,66,0.00,,,0.08,VWS V14.01,2013-08-29 01:31:00,
2013-08-28 18:33:00,73.2,61.2,29.71,WSW,248,0.0,4.5,66,0.00,,,0.08,VWS V14.01,2013-08-29 01:33:00,
2013-08-28 18:35:00,73.0,61.5,29.71,NNE,22,3.6,4.5,67,0.00,,,0.08,VWS V14.01,2013-08-29 01:35:00,
2013-08-28 18:36:00,73.0,61.5,29.71,NNE,22,3.6,4.5,67,0.00,,,0.08,VWS V14.01,2013-08-29 01:36:00,
2013-08-28 18:38:00,72.7,61.1,29.71,NNW,338,1.3,4.5,67,0.00,,,0.08,VWS V14.01,2013-08-29 01:38:00,
2013-08-28 18:40:00,72.9,61.3,29.71,WSW,248,1.1,4.5,67,0.00,,,0.08,VWS V14.01,2013-08-29 01:40:00,
2013-08-28 18:41:00,72.7,61.1,29.71,WSW,248,0.9,4.5,67,0.00,,,0.08,VWS V14.01,2013-08-29 01:41:00,
2013-08-28 18:43:00,72.7,61.1,29.71,NW,315,0.0,4.5,67,0.00,,,0.08,VWS V14.01,2013-08-29 01:43:00,
2013-08-28 18:44:00,72.7,61.5,29.71,NW,315,0.0,4.5,68,0.00,,,0.08,VWS V14.01,2013-08-29 01:44:00,
2013-08-28 18:45:00,72.7,61.5,29.71,WNW,292,0.0,4.5,68,0.00,,,0.08,VWS V14.01,2013-08-29 01:45:00,
2013-08-28 18:46:00,72.7,61.5,29.71,NNW,338,0.0,4.5,68,0.00,,,0.08,VWS V14.01,2013-08-29 01:46:00,
2013-08-28 18:48:00,72.7,61.5,29.71,WSW,248,0.0,4.5,68,0.00,,,0.08,VWS V14.01,2013-08-29 01:48:00,
2013-08-28 18:49:00,72.7,61.5,29.71,WNW,292,0.0,3.6,68,0.00,,,0.08,VWS V14.01,2013-08-29 01:49:00,
2013-08-28 18:50:00,72.7,61.5,29.71,WNW,292,0.0,3.6,68,0.00,,,0.08,VWS V14.01,2013-08-29 01:50:00,
2013-08-28 18:51:00,72.7,61.5,29.71,West,270,0.0,3.6,68,0.00,,,0.08,VWS V14.01,2013-08-29 01:51:00,
2013-08-28 18:52:00,72.7,61.5,29.71,West,270,0.0,3.6,68,0.00,,,0.08,VWS V14.01,2013-08-29 01:52:00,
2013-08-28 18:53:00,72.5,61.3,29.71,WNW,292,0.0,2.7,68,0.00,,,0.08,VWS V14.01,2013-08-29 01:53:00,
2013-08-28 18:54:00,72.5,61.3,29.71,WNW,292,0.0,2.7,68,0.00,,,0.08,VWS V14.01,2013-08-29 01:54:00,
2013-08-28 18:55:00,72.5,61.3,29.71,NNW,338,0.0,2.7,68,0.00,,,0.08,VWS V14.01,2013-08-29 01:55:00,
2013-08-28 18:56:00,72.5,61.3,29.71,WNW,292,0.0,2.7,68,0.00,,,0.08,VWS V14.01,2013-08-29 01:56:00,
2013-08-28 18:57:00,72.5,61.3,29.71,WNW,292,0.0,2.7,68,0.00,,,0.08,VWS V14.01,2013-08-29 01:57:00,
2013-08-28 18:58:00,72.5,61.3,29.71,NNW,338,0.0,2.2,68,0.00,,,0.08,VWS V14.01,2013-08-29 01:58:00,
2013-08-28 18:59:00,72.3,61.6,29.71,WNW,292,0.0,2.2,69,0.00,,,0.08,VWS V14.01,2013-08-29 01:59:00,
2013-08-28 19:00:00,72.3,61.6,29.71,WNW,292,0.0,2.2,69,0.00,,,0.00,VWS V14.01,2013-08-29 02:00:00,
2013-08-28 19:02:00,72.5,61.8,29.71,WNW,292,0.0,2.2,69,0.00,,,0.08,VWS V14.01,2013-08-29 02:02:00,
2013-08-28 19:03:00,72.5,61.3,29.71,WNW,292,0.0,2.2,68,0.00,,,0.08,VWS V14.01,2013-08-29 02:03:00,
2013-08-28 19:04:00,72.5,61.3,29.71,WNW,292,0.0,2.2,68,0.00,,,0.08,VWS V14.01,2013-08-29 02:04:00,
2013-08-28 19:05:00,72.5,61.3,29.71,WNW,292,0.0,0.0,68,0.00,,,0.08,VWS V14.01,2013-08-29 02:05:00,
2013-08-28 19:07:00,72.5,61.3,29.71,WNW,292,0.0,0.0,68,0.00,,,0.08,VWS V14.01,2013-08-29 02:07:00,
2013-08-28 19:08:00,72.5,61.3,29.71,WNW,292,0.0,0.0,68,0.00,,,0.08,VWS V14.01,2013-08-29 02:08:00,
2013-08-28 19:10:00,72.5,61.3,29.71,WNW,292,0.0,0.0,68,0.00,,,0.08,VWS V14.01,2013-08-29 02:10:00,
2013-08-28 19:12:00,72.5,61.3,29.71,WNW,292,0.0,0.0,68,0.00,,,0.08,VWS V14.01,2013-08-29 02:12:00,
2013-08-28 19:13:00,72.5,61.3,29.71,SW,225,0.0,0.0,68,0.00,,,0.08,VWS V14.01,2013-08-29 02:13:00,
2013-08-28 19:15:00,72.3,61.2,29.71,SSW,202,0.0,0.0,68,0.00,,,0.08,VWS V14.01,2013-08-29 02:15:00,
2013-08-28 19:16:00,72.0,61.2,29.71,SSW,202,0.0,0.0,69,0.00,,,0.08,VWS V14.01,2013-08-29 02:16:00,
2013-08-28 19:17:00,72.0,61.2,29.71,WNW,292,0.0,0.0,69,0.00,,,0.08,VWS V14.01,2013-08-29 02:17:00,
2013-08-28 19:18:00,72.0,61.2,29.71,WNW,292,0.0,0.0,69,0.00,,,0.08,VWS V14.01,2013-08-29 02:18:00,
2013-08-28 19:20:00,71.6,60.9,29.71,East,90,2.9,2.9,69,0.00,,,0.08,VWS V14.01,2013-08-29 02:20:00,
2013-08-28 19:22:00,71.4,60.7,29.71,WNW,292,2.0,2.9,69,0.00,,,0.08,VWS V14.01,2013-08-29 02:22:00,
2013-08-28 19:23:00,71.4,60.7,29.71,WNW,292,0.0,2.9,69,0.00,,,0.08,VWS V14.01,2013-08-29 02:23:00,
2013-08-28 19:25:00,71.2,60.6,29.71,WSW,248,0.9,2.9,69,0.00,,,0.08,VWS V14.01,2013-08-29 02:25:00,
2013-08-28 19:27:00,71.2,60.6,29.71,WNW,292,2.2,2.9,69,0.00,,,0.08,VWS V14.01,2013-08-29 02:27:00,
2013-08-28 19:28:00,71.1,60.8,29.71,WSW,248,0.0,2.9,70,0.00,,,0.08,VWS V14.01,2013-08-29 02:28:00,
2013-08-28 19:30:00,71.1,60.8,29.71,WNW,292,0.0,2.9,70,0.00,,,0.08,VWS V14.01,2013-08-29 02:30:00,
2013-08-28 19:32:00,70.9,60.6,29.71,West,270,0.0,2.2,70,0.00,,,0.08,VWS V14.01,2013-08-29 02:32:00,
2013-08-28 19:33:00,70.9,60.6,29.71,West,270,0.0,2.2,70,0.00,,,0.08,VWS V14.01,2013-08-29 02:33:00,
2013-08-28 19:35:00,70.7,60.5,29.71,WNW,292,1.1,2.2,70,0.00,,,0.08,VWS V14.01,2013-08-29 02:35:00,
2013-08-28 19:37:00,70.7,60.5,29.71,NNW,338,0.9,2.2,70,0.00,,,0.08,VWS V14.01,2013-08-29 02:37:00,
2013-08-28 19:38:00,70.7,60.5,29.71,SW,225,2.5,2.5,70,0.00,,,0.08,VWS V14.01,2013-08-29 02:38:00,
2013-08-28 19:40:00,70.5,60.3,29.71,ESE,112,0.0,2.5,70,0.00,,,0.08,VWS V14.01,2013-08-29 02:40:00,
2013-08-28 19:41:00,70.5,60.3,29.71,ESE,112,0.0,2.5,70,0.00,,,0.08,VWS V14.01,2013-08-29 02:41:00,
2013-08-28 19:42:00,70.5,60.3,29.71,North,0,0.0,2.5,70,0.00,,,0.08,VWS V14.01,2013-08-29 02:42:00,
2013-08-28 19:43:00,70.5,60.3,29.71,North,0,0.0,2.5,70,0.00,,,0.08,VWS V14.01,2013-08-29 02:43:00,
2013-08-28 19:45:00,70.3,60.1,29.71,WSW,248,0.0,0.9,70,0.00,,,0.08,VWS V14.01,2013-08-29 02:45:00,
2013-08-28 19:46:00,70.3,60.1,29.71,WSW,248,0.0,0.9,70,0.00,,,0.08,VWS V14.01,2013-08-29 02:46:00,
2013-08-28 19:47:00,70.3,60.1,29.71,WSW,248,0.0,0.9,70,0.00,,,0.08,VWS V14.01,2013-08-29 02:47:00,
2013-08-28 19:48:00,70.2,59.9,29.71,WSW,248,1.6,1.6,70,0.00,,,0.08,VWS V14.01,2013-08-29 02:48:00,
2013-08-28 19:50:00,70.2,59.9,29.71,SSE,158,0.0,1.6,70,0.00,,,0.08,VWS V14.01,2013-08-29 02:50:00,
2013-08-28 19:51:00,70.0,60.2,29.71,NNW,338,0.0,1.6,71,0.00,,,0.08,VWS V14.01,2013-08-29 02:51:00,
2013-08-28 19:52:00,70.0,60.2,29.71,NNW,338,0.0,1.6,71,0.00,,,0.08,VWS V14.01,2013-08-29 02:52:00,
2013-08-28 19:53:00,70.0,60.2,29.71,ESE,112,0.0,1.6,71,0.00,,,0.08,VWS V14.01,2013-08-29 02:53:00,
2013-08-28 19:55:00,69.8,60.0,29.71,West,270,0.0,1.6,71,0.00,,,0.08,VWS V14.01,2013-08-29 02:55:00,
2013-08-28 19:56:00,69.8,60.0,29.71,SSW,202,0.0,1.6,71,0.00,,,0.08,VWS V14.01,2013-08-29 02:56:00,
2013-08-28 19:57:00,69.8,60.0,29.71,WNW,292,0.0,0.0,71,0.00,,,0.08,VWS V14.01,2013-08-29 02:57:00,
2013-08-28 19:58:00,69.8,60.0,29.71,West,270,0.0,0.0,71,0.00,,,0.08,VWS V14.01,2013-08-29 02:58:00,
2013-08-28 20:00:00,69.6,59.8,29.71,WNW,292,0.0,0.0,71,0.00,,,0.08,VWS V14.01,2013-08-29 03:00:00,
2013-08-28 20:01:00,69.6,59.8,29.71,WSW,248,1.1,1.1,71,0.00,,,0.08,VWS V14.01,2013-08-29 03:01:00,
2013-08-28 20:02:00,69.6,59.8,29.71,NNW,338,0.0,1.1,71,0.00,,,0.08,VWS V14.01,2013-08-29 03:02:00,
2013-08-28 20:03:00,69.6,59.8,29.71,NNW,338,0.0,1.1,71,0.00,,,0.08,VWS V14.01,2013-08-29 03:03:00,
2013-08-28 20:05:00,69.4,59.6,29.71,West,270,0.0,1.1,71,0.00,,,0.08,VWS V14.01,2013-08-29 03:05:00,
2013-08-28 20:07:00,69.6,59.8,29.71,WNW,292,0.0,1.1,71,0.00,,,0.08,VWS V14.01,2013-08-29 03:07:00,
2013-08-28 20:08:00,69.6,59.8,29.71,West,270,0.0,1.1,71,0.00,,,0.08,VWS V14.01,2013-08-29 03:08:00,
2013-08-28 20:09:00,69.6,59.8,29.71,West,270,0.0,0.0,71,0.00,,,0.08,VWS V14.01,2013-08-29 03:09:00,
2013-08-28 20:10:00,69.4,59.6,29.71,NE,45,0.0,0.0,71,0.00,,,0.08,VWS V14.01,2013-08-29 03:10:00,
2013-08-28 20:12:00,69.4,59.6,29.71,SE,135,1.3,1.3,71,0.00,,,0.08,VWS V14.01,2013-08-29 03:12:00,
2013-08-28 20:13:00,69.3,59.5,29.71,WNW,292,0.0,1.3,71,0.00,,,0.08,VWS V14.01,2013-08-29 03:13:00,
2013-08-28 20:14:00,69.1,59.3,29.71,WNW,292,0.0,1.3,71,0.00,,,0.08,VWS V14.01,2013-08-29 03:14:00,
2013-08-28 20:15:00,69.1,59.3,29.71,WNW,292,0.0,1.3,71,0.00,,,0.08,VWS V14.01,2013-08-29 03:15:00,
2013-08-28 20:17:00,69.1,59.7,29.71,North,0,0.0,2.0,72,0.00,,,0.08,VWS V14.01,2013-08-29 03:17:00,
2013-08-28 20:19:00,69.1,59.7,29.74,North,0,0.0,2.0,72,0.00,,,0.08,VWS V14.01,2013-08-29 03:19:00,
2013-08-28 20:20:00,69.1,59.7,29.74,North,0,0.0,2.0,72,0.00,,,0.08,VWS V14.01,2013-08-29 03:20:00,
2013-08-28 20:22:00,69.1,59.7,29.74,NE,45,0.0,2.0,72,0.00,,,0.08,VWS V14.01,2013-08-29 03:22:00,
2013-08-28 20:24:00,68.9,59.5,29.74,WNW,292,0.0,0.0,72,0.00,,,0.08,VWS V14.01,2013-08-29 03:24:00,
2013-08-28 20:25:00,68.9,59.5,29.74,ESE,112,0.9,0.9,72,0.00,,,0.08,VWS V14.01,2013-08-29 03:25:00,
2013-08-28 20:27:00,68.9,59.5,29.74,NE,45,0.0,0.9,72,0.00,,,0.08,VWS V14.01,2013-08-29 03:27:00,
2013-08-28 20:29:00,68.7,59.3,29.74,WNW,292,0.0,0.9,72,0.00,,,0.08,VWS V14.01,2013-08-29 03:29:00,
2013-08-28 20:30:00,68.7,59.3,29.74,ESE,112,0.0,0.9,72,0.00,,,0.08,VWS V14.01,2013-08-29 03:30:00,
2013-08-28 20:32:00,68.7,59.3,29.74,WNW,292,1.1,1.1,72,0.00,,,0.08,VWS V14.01,2013-08-29 03:32:00,
2013-08-28 20:34:00,68.7,59.3,29.74,WNW,292,0.0,1.1,72,0.00,,,0.08,VWS V14.01,2013-08-29 03:34:00,
2013-08-28 20:35:00,68.7,59.3,29.74,WNW,292,0.0,1.1,72,0.00,,,0.08,VWS V14.01,2013-08-29 03:35:00,
2013-08-28 20:37:00,68.5,59.2,29.74,WSW,248,0.0,1.1,72,0.00,,,0.08,VWS V14.01,2013-08-29 03:37:00,
2013-08-28 20:38:00,68.5,59.2,29.74,NW,315,0.0,1.1,72,0.00,,,0.08,VWS V14.01,2013-08-29 03:38:00,
2013-08-28 20:39:00,68.5,59.2,29.74,WNW,292,0.0,1.1,72,0.00,,,0.08,VWS V14.01,2013-08-29 03:39:00,
2013-08-28 20:40:00,68.5,59.2,29.74,WNW,292,0.0,1.1,72,0.00,,,0.08,VWS V14.01,2013-08-29 03:40:00,
2013-08-28 20:42:00,68.5,59.5,29.74,SSW,202,0.0,1.1,73,0.00,,,0.08,VWS V14.01,2013-08-29 03:42:00,
2013-08-28 20:43:00,68.5,59.5,29.74,SSW,202,0.0,1.1,73,0.00,,,0.08,VWS V14.01,2013-08-29 03:43:00,
2013-08-28 20:44:00,68.5,59.5,29.74,West,270,0.0,1.1,73,0.00,,,0.08,VWS V14.01,2013-08-29 03:44:00,
2013-08-28 20:45:00,68.5,59.5,29.74,West,270,0.0,1.1,73,0.00,,,0.08,VWS V14.01,2013-08-29 03:45:00,
2013-08-28 20:47:00,68.4,59.4,29.74,East,90,0.0,0.0,73,0.00,,,0.08,VWS V14.01,2013-08-29 03:47:00,
2013-08-28 20:48:00,68.4,59.4,29.74,East,90,0.0,0.0,73,0.00,,,0.08,VWS V14.01,2013-08-29 03:48:00,
2013-08-28 20:49:00,68.4,59.4,29.74,East,90,0.0,0.0,73,0.00,,,0.08,VWS V14.01,2013-08-29 03:49:00,
2013-08-28 20:50:00,68.4,59.4,29.74,South,180,0.0,0.0,73,0.00,,,0.08,VWS V14.01,2013-08-29 03:50:00,
2013-08-28 20:51:00,68.4,59.4,29.74,ESE,112,0.0,0.0,73,0.00,,,0.08,VWS V14.01,2013-08-29 03:51:00,
2013-08-28 20:52:00,68.4,59.4,29.74,East,90,0.0,0.0,73,0.00,,,0.08,VWS V14.01,2013-08-29 03:52:00,
2013-08-28 20:53:00,68.2,59.2,29.74,East,90,0.0,0.0,73,0.00,,,0.08,VWS V14.01,2013-08-29 03:53:00,
2013-08-28 20:54:00,68.2,59.2,29.74,NW,315,0.0,0.0,73,0.00,,,0.08,VWS V14.01,2013-08-29 03:54:00,
2013-08-28 20:55:00,68.2,59.2,29.74,NW,315,0.0,0.0,73,0.00,,,0.08,VWS V14.01,2013-08-29 03:55:00,
2013-08-28 20:56:00,68.2,59.2,29.74,NW,315,0.0,0.0,73,0.00,,,0.08,VWS V14.01,2013-08-29 03:56:00,
2013-08-28 20:57:00,68.2,59.2,29.74,NW,315,0.0,0.0,73,0.00,,,0.08,VWS V14.01,2013-08-29 03:57:00,
2013-08-28 20:59:00,68.2,59.2,29.74,NW,315,0.0,0.0,73,0.00,,,0.08,VWS V14.01,2013-08-29 03:59:00,
2013-08-28 21:00:00,68.2,59.2,29.74,North,0,0.0,0.0,73,0.00,,,0.08,VWS V14.01,2013-08-29 04:00:00,
2013-08-28 21:01:00,68.2,59.2,29.74,NE,45,0.0,0.0,73,0.00,,,0.08,VWS V14.01,2013-08-29 04:01:00,
2013-08-28 21:06:00,67.8,59.2,29.74,SE,135,0.0,0.0,74,0.00,,,0.08,VWS V14.01,2013-08-29 04:06:00,
2013-08-28 21:11:00,67.8,59.2,29.74,WSW,248,0.0,2.0,74,0.00,,,0.08,VWS V14.01,2013-08-29 04:11:00,
2013-08-28 21:16:00,67.6,59.1,29.74,WNW,292,0.0,2.5,74,0.00,,,0.08,VWS V14.01,2013-08-29 04:16:00,
2013-08-28 21:17:00,67.6,59.1,29.74,West,270,0.0,2.5,74,0.00,,,0.08,VWS V14.01,2013-08-29 04:17:00,
2013-08-28 21:21:00,67.6,59.1,29.74,WNW,292,0.0,2.5,74,0.00,,,0.08,VWS V14.01,2013-08-29 04:21:00,
2013-08-28 21:22:00,67.6,59.1,29.74,WNW,292,0.0,2.5,74,0.00,,,0.08,VWS V14.01,2013-08-29 04:22:00,
2013-08-28 21:26:00,67.5,59.3,29.74,WNW,292,0.0,2.5,75,0.00,,,0.08,VWS V14.01,2013-08-29 04:26:00,
2013-08-28 21:27:00,67.5,59.3,29.74,West,270,0.0,2.5,75,0.00,,,0.08,VWS V14.01,2013-08-29 04:27:00,
2013-08-28 21:31:00,67.3,59.1,29.74,ESE,112,0.0,0.9,75,0.00,,,0.08,VWS V14.01,2013-08-29 04:31:00,
2013-08-28 21:32:00,67.3,59.1,29.74,WSW,248,0.0,0.9,75,0.00,,,0.08,VWS V14.01,2013-08-29 04:32:00,
2013-08-28 21:36:00,67.1,58.9,29.74,NE,45,0.0,0.9,75,0.00,,,0.08,VWS V14.01,2013-08-29 04:36:00,
2013-08-28 21:37:00,67.1,58.9,29.74,NE,45,0.0,0.9,75,0.00,,,0.08,VWS V14.01,2013-08-29 04:37:00,
2013-08-28 21:41:00,67.1,59.3,29.74,ENE,68,0.0,0.9,76,0.00,,,0.08,VWS V14.01,2013-08-29 04:41:00,
2013-08-28 21:42:00,67.1,59.3,29.74,ENE,68,0.0,0.9,76,0.00,,,0.08,VWS V14.01,2013-08-29 04:42:00,
2013-08-28 21:43:00,67.1,59.3,29.74,ENE,68,0.0,0.9,76,0.00,,,0.08,VWS V14.01,2013-08-29 04:43:00,
2013-08-28 21:46:00,66.9,59.1,29.74,SW,225,0.0,0.9,76,0.00,,,0.08,VWS V14.01,2013-08-29 04:46:00,
2013-08-28 21:47:00,66.9,59.1,29.74,SW,225,0.0,0.9,76,0.00,,,0.08,VWS V14.01,2013-08-29 04:47:00,
2013-08-28 21:48:00,66.9,59.1,29.74,SW,225,0.0,0.9,76,0.00,,,0.08,VWS V14.01,2013-08-29 04:48:00,
2013-08-28 21:51:00,66.9,59.1,29.74,SE,135,0.0,0.0,76,0.00,,,0.08,VWS V14.01,2013-08-29 04:51:00,
2013-08-28 21:52:00,66.9,59.1,29.74,East,90,0.0,0.0,76,0.00,,,0.08,VWS V14.01,2013-08-29 04:52:00,
2013-08-28 21:53:00,66.7,58.9,29.74,East,90,0.0,0.0,76,0.00,,,0.08,VWS V14.01,2013-08-29 04:53:00,
2013-08-28 21:56:00,66.7,58.9,29.74,SE,135,0.0,0.0,76,0.00,,,0.08,VWS V14.01,2013-08-29 04:56:00,
2013-08-28 21:58:00,66.7,58.9,29.74,ENE,68,0.0,0.0,76,0.00,,,0.08,VWS V14.01,2013-08-29 04:58:00,
2013-08-28 22:01:00,66.6,58.8,29.74,NNE,22,0.0,0.0,76,0.00,,,0.08,VWS V14.01,2013-08-29 05:01:00,
2013-08-28 22:03:00,66.6,58.8,29.74,South,180,0.0,0.0,76,0.00,,,0.08,VWS V14.01,2013-08-29 05:03:00,
2013-08-28 22:06:00,66.6,58.8,29.74,NE,45,0.0,0.0,76,0.00,,,0.08,VWS V14.01,2013-08-29 05:06:00,
2013-08-28 22:08:00,66.4,58.6,29.74,East,90,0.0,0.0,76,0.00,,,0.08,VWS V14.01,2013-08-29 05:08:00,
2013-08-28 22:09:00,66.4,59.0,29.74,East,90,0.0,0.0,77,0.00,,,0.08,VWS V14.01,2013-08-29 05:09:00,
2013-08-28 22:11:00,66.4,59.0,29.74,ENE,68,0.0,0.0,77,0.00,,,0.08,VWS V14.01,2013-08-29 05:11:00,
2013-08-28 22:13:00,66.4,59.0,29.74,ESE,112,0.0,0.0,77,0.00,,,0.08,VWS V14.01,2013-08-29 05:13:00,
2013-08-28 22:14:00,66.4,59.0,29.74,ESE,112,0.0,0.0,77,0.00,,,0.08,VWS V14.01,2013-08-29 05:14:00,
2013-08-28 22:16:00,66.6,59.1,29.74,ESE,112,0.0,0.0,77,0.00,,,0.08,VWS V14.01,2013-08-29 05:16:00,
2013-08-28 22:18:00,66.6,59.1,29.74,ESE,112,0.0,0.0,77,0.00,,,0.08,VWS V14.01,2013-08-29 05:18:00,
2013-08-28 22:19:00,66.6,59.1,29.74,ESE,112,0.0,0.0,77,0.00,,,0.08,VWS V14.01,2013-08-29 05:19:00,
2013-08-28 22:21:00,66.6,59.1,29.74,ESE,112,0.0,0.0,77,0.00,,,0.08,VWS V14.01,2013-08-29 05:21:00,
2013-08-28 22:22:00,66.6,59.1,29.74,ESE,112,0.0,0.0,77,0.00,,,0.08,VWS V14.01,2013-08-29 05:22:00,
2013-08-28 22:24:00,66.6,59.1,29.74,ESE,112,0.0,0.0,77,0.00,,,0.08,VWS V14.01,2013-08-29 05:24:00,
2013-08-28 22:26:00,66.4,59.3,29.74,East,90,0.0,0.0,78,0.00,,,0.08,VWS V14.01,2013-08-29 05:26:00,
2013-08-28 22:27:00,66.4,59.3,29.74,East,90,0.0,0.0,78,0.00,,,0.08,VWS V14.01,2013-08-29 05:27:00,
2013-08-28 22:29:00,66.4,59.3,29.74,ESE,112,0.0,0.0,78,0.00,,,0.08,VWS V14.01,2013-08-29 05:29:00,
2013-08-28 22:31:00,66.4,59.3,29.74,ESE,112,0.0,0.0,78,0.00,,,0.08,VWS V14.01,2013-08-29 05:31:00,
2013-08-28 22:32:00,66.4,59.0,29.74,ESE,112,0.0,0.0,77,0.00,,,0.08,VWS V14.01,2013-08-29 05:32:00,
2013-08-28 22:34:00,66.2,59.2,29.76,ESE,112,0.0,0.0,78,0.00,,,0.08,VWS V14.01,2013-08-29 05:34:00,
2013-08-28 22:36:00,66.2,59.2,29.76,ESE,112,0.0,0.0,78,0.00,,,0.08,VWS V14.01,2013-08-29 05:36:00,
2013-08-28 22:37:00,66.2,59.2,29.76,ESE,112,0.0,0.0,78,0.00,,,0.08,VWS V14.01,2013-08-29 05:37:00,
2013-08-28 22:39:00,66.2,59.2,29.76,North,0,0.0,0.0,78,0.00,,,0.08,VWS V14.01,2013-08-29 05:39:00,
2013-08-28 22:40:00,66.2,59.2,29.76,East,90,0.0,0.0,78,0.00,,,0.08,VWS V14.01,2013-08-29 05:40:00,
2013-08-28 22:41:00,66.2,59.2,29.76,East,90,0.0,0.0,78,0.00,,,0.08,VWS V14.01,2013-08-29 05:41:00,
2013-08-28 22:42:00,66.2,59.2,29.76,East,90,0.0,0.0,78,0.00,,,0.08,VWS V14.01,2013-08-29 05:42:00,
2013-08-28 22:44:00,66.2,59.2,29.76,WNW,292,0.0,0.0,78,0.00,,,0.08,VWS V14.01,2013-08-29 05:44:00,
2013-08-28 22:45:00,66.2,59.2,29.76,WSW,248,0.0,0.0,78,0.00,,,0.08,VWS V14.01,2013-08-29 05:45:00,
2013-08-28 22:46:00,66.0,59.0,29.76,WNW,292,0.0,0.0,78,0.00,,,0.08,VWS V14.01,2013-08-29 05:46:00,
2013-08-28 22:47:00,66.0,59.0,29.76,WNW,292,0.0,0.0,78,0.00,,,0.08,VWS V14.01,2013-08-29 05:47:00,
2013-08-28 22:49:00,66.0,59.3,29.76,West,270,0.0,0.9,79,0.00,,,0.08,VWS V14.01,2013-08-29 05:49:00,
2013-08-28 22:50:00,66.0,59.3,29.76,WNW,292,0.0,0.9,79,0.00,,,0.08,VWS V14.01,2013-08-29 05:50:00,
2013-08-28 22:51:00,66.0,59.3,29.76,WNW,292,0.0,0.9,79,0.00,,,0.08,VWS V14.01,2013-08-29 05:51:00,
2013-08-28 22:52:00,66.0,59.3,29.76,WNW,292,0.0,0.9,79,0.00,,,0.08,VWS V14.01,2013-08-29 05:52:00,
2013-08-28 22:54:00,65.8,59.2,29.76,SSW,202,0.0,0.9,79,0.00,,,0.08,VWS V14.01,2013-08-29 05:54:00,
2013-08-28 22:55:00,65.8,59.2,29.76,WSW,248,0.0,0.9,79,0.00,,,0.08,VWS V14.01,2013-08-29 05:55:00,
2013-08-28 22:56:00,65.8,59.2,29.76,WSW,248,0.0,0.9,79,0.00,,,0.08,VWS V14.01,2013-08-29 05:56:00,
2013-08-28 22:57:00,65.8,59.2,29.76,WSW,248,0.0,0.9,79,0.00,,,0.08,VWS V14.01,2013-08-29 05:57:00,
2013-08-28 22:58:00,65.8,59.2,29.76,WSW,248,0.0,0.9,79,0.00,,,0.08,VWS V14.01,2013-08-29 05:58:00,
2013-08-28 22:59:00,65.8,59.2,29.76,East,90,0.0,0.9,79,0.00,,,0.08,VWS V14.01,2013-08-29 05:59:00,
2013-08-28 23:00:00,65.8,59.2,29.76,East,90,0.0,0.9,79,0.00,,,0.08,VWS V14.01,2013-08-29 06:00:00,
2013-08-28 23:01:00,65.8,59.2,29.76,SW,225,0.0,0.9,79,0.00,,,0.08,VWS V14.01,2013-08-29 06:01:00,
2013-08-28 23:02:00,65.7,59.0,29.76,WSW,248,0.0,0.9,79,0.00,,,0.08,VWS V14.01,2013-08-29 06:02:00,
2013-08-28 23:03:00,65.7,59.0,29.76,WSW,248,0.0,0.9,79,0.00,,,0.08,VWS V14.01,2013-08-29 06:03:00,
2013-08-28 23:05:00,65.7,59.0,29.76,East,90,0.0,0.0,79,0.00,,,0.08,VWS V14.01,2013-08-29 06:05:00,
2013-08-28 23:06:00,65.7,59.0,29.76,East,90,0.0,0.0,79,0.00,,,0.08,VWS V14.01,2013-08-29 06:06:00,
2013-08-28 23:07:00,65.7,59.0,29.76,NNE,22,0.0,0.0,79,0.00,,,0.08,VWS V14.01,2013-08-29 06:07:00,
2013-08-28 23:08:00,65.7,59.0,29.76,NNE,22,0.9,0.9,79,0.00,,,0.08,VWS V14.01,2013-08-29 06:08:00,
2013-08-28 23:10:00,65.5,59.2,29.76,ENE,68,0.0,0.9,80,0.00,,,0.08,VWS V14.01,2013-08-29 06:10:00,
2013-08-28 23:11:00,65.5,59.2,29.76,NE,45,0.0,0.9,80,0.00,,,0.08,VWS V14.01,2013-08-29 06:11:00,
2013-08-28 23:12:00,65.5,59.2,29.76,East,90,1.3,1.3,80,0.00,,,0.08,VWS V14.01,2013-08-29 06:12:00,
2013-08-28 23:13:00,65.5,58.8,29.76,East,90,0.0,1.3,79,0.00,,,0.08,VWS V14.01,2013-08-29 06:13:00,
2013-08-28 23:15:00,65.5,58.8,29.76,East,90,0.0,1.3,79,0.00,,,0.08,VWS V14.01,2013-08-29 06:15:00,
2013-08-28 23:16:00,65.5,59.2,29.76,East,90,0.0,1.3,80,0.00,,,0.08,VWS V14.01,2013-08-29 06:16:00,
2013-08-28 23:17:00,65.5,59.2,29.76,WSW,248,0.0,1.3,80,0.00,,,0.08,VWS V14.01,2013-08-29 06:17:00,
2013-08-28 23:18:00,65.5,59.2,29.76,SSW,202,2.7,2.7,80,0.00,,,0.08,VWS V14.01,2013-08-29 06:18:00,
2013-08-28 23:20:00,65.5,59.2,29.76,South,180,0.0,2.7,80,0.00,,,0.08,VWS V14.01,2013-08-29 06:20:00,
2013-08-28 23:21:00,65.3,59.0,29.76,South,180,0.0,2.7,80,0.00,,,0.08,VWS V14.01,2013-08-29 06:21:00,
2013-08-28 23:22:00,65.3,59.0,29.76,ESE,112,0.9,2.7,80,0.00,,,0.08,VWS V14.01,2013-08-29 06:22:00,
2013-08-28 23:23:00,65.3,59.0,29.76,ESE,112,0.0,2.7,80,0.00,,,0.08,VWS V14.01,2013-08-29 06:23:00,
2013-08-28 23:26:00,65.3,59.0,29.76,ENE,68,0.0,2.7,80,0.00,,,0.08,VWS V14.01,2013-08-29 06:26:00,
2013-08-28 23:27:00,65.3,59.0,29.76,ENE,68,0.0,2.7,80,0.00,,,0.08,VWS V14.01,2013-08-29 06:27:00,
2013-08-28 23:28:00,65.3,59.0,29.76,ENE,68,0.0,2.7,80,0.00,,,0.08,VWS V14.01,2013-08-29 06:28:00,
2013-08-28 23:31:00,65.5,59.2,29.76,ENE,68,0.0,2.7,80,0.00,,,0.08,VWS V14.01,2013-08-29 06:31:00,
2013-08-28 23:32:00,65.5,59.2,29.76,ENE,68,0.0,2.7,80,0.00,,,0.08,VWS V14.01,2013-08-29 06:32:00,
2013-08-28 23:33:00,65.5,59.2,29.76,ENE,68,0.0,2.7,80,0.00,,,0.08,VWS V14.01,2013-08-29 06:33:00,
2013-08-28 23:36:00,65.5,59.5,29.76,ENE,68,0.0,0.9,81,0.00,,,0.08,VWS V14.01,2013-08-29 06:36:00,
2013-08-28 23:37:00,65.5,59.5,29.76,ENE,68,0.0,0.9,81,0.00,,,0.08,VWS V14.01,2013-08-29 06:37:00,
2013-08-28 23:38:00,65.3,59.3,29.76,South,180,0.0,0.0,81,0.00,,,0.08,VWS V14.01,2013-08-29 06:38:00,
2013-08-28 23:41:00,65.3,59.3,29.76,South,180,0.0,0.0,81,0.00,,,0.08,VWS V14.01,2013-08-29 06:41:00,
2013-08-28 23:42:00,65.3,59.3,29.76,ESE,112,0.0,0.0,81,0.00,,,0.08,VWS V14.01,2013-08-29 06:42:00,
2013-08-28 23:43:00,65.3,59.3,29.76,ESE,112,0.0,0.0,81,0.00,,,0.08,VWS V14.01,2013-08-29 06:43:00,
2013-08-28 23:46:00,65.1,59.2,29.76,ESE,112,0.0,0.0,81,0.00,,,0.08,VWS V14.01,2013-08-29 06:46:00,
2013-08-28 23:47:00,65.1,59.2,29.76,ESE,112,0.0,0.0,81,0.00,,,0.08,VWS V14.01,2013-08-29 06:47:00,
2013-08-28 23:48:00,65.1,59.2,29.76,ESE,112,0.0,0.0,81,0.00,,,0.08,VWS V14.01,2013-08-29 06:48:00,
2013-08-28 23:51:00,65.3,59.3,29.76,ESE,112,0.0,0.0,81,0.00,,,0.08,VWS V14.01,2013-08-29 06:51:00,
2013-08-28 23:52:00,65.1,59.2,29.76,ESE,112,0.0,0.0,81,0.00,,,0.08,VWS V14.01,2013-08-29 06:52:00,
2013-08-28 23:53:00,65.1,59.2,29.76,ESE,112,0.0,0.0,81,0.00,,,0.08,VWS V14.01,2013-08-29 06:53:00,
2013-08-28 23:56:00,65.1,59.5,29.76,ESE,112,0.0,0.0,82,0.00,,,0.08,VWS V14.01,2013-08-29 06:56:00,
2013-08-28 23:57:00,65.1,59.5,29.76,ESE,112,0.0,0.0,82,0.00,,,0.08,VWS V14.01,2013-08-29 06:57:00,
2013-08-28 23:58:00,65.1,59.5,29.76,ESE,112,0.0,0.0,82,0.00,,,0.08,VWS V14.01,2013-08-29 06:58:00,